Observation data for Tarzan on 09/11/2017      Previous  Date  Next       Current Mesonet Observations  Soil Data  Daily Summary Page  Observations in Plain Language
KTA1 110500Z 10005KT 19/09 A3021 RMK A01 T01940093  RH  052%=      5-min Rain = 0
KTA1 110501Z 10005KT 19/09 A3021 RMK A01 T01930093  RH  052%=      5-min Rain = 0
KTA1 110502Z 10005KT 19/09 A3021 RMK A01 T01930093  RH  052%=      5-min Rain = 0
KTA1 110503Z 10005KT 19/09 A3021 RMK A01 T01940094  RH  052%=      5-min Rain = 0
KTA1 110504Z 10005KT 19/09 A3021 RMK A01 T01930093  RH  052%=      5-min Rain = 0
KTA1 110505Z 10005KT 19/09 A3021 RMK A01 T01930093  RH  052%=      5-min Rain = 0
KTA1 110506Z 10005KT 19/09 A3021 RMK A01 T01930094  RH  053%=      5-min Rain = 0
KTA1 110507Z 10005KT 19/09 A3021 RMK A01 T01920093  RH  053%=      5-min Rain = 0
KTA1 110508Z 10005KT 19/09 A3021 RMK A01 T01920094  RH  053%=      5-min Rain = 0
KTA1 110509Z 10005KT 19/09 A3021 RMK A01 T01920094  RH  053%=      5-min Rain = 0
KTA1 110510Z 09005KT 19/09 A3021 RMK A01 T01920094  RH  053%=      5-min Rain = 0
KTA1 110511Z 09005KT 19/09 A3021 RMK A01 T01920094  RH  053%=      5-min Rain = 0
KTA1 110512Z 09005KT 19/09 A3021 RMK A01 T01910093  RH  053%=      5-min Rain = 0
KTA1 110513Z 09005KT 19/09 A3021 RMK A01 T01910093  RH  053%=      5-min Rain = 0
KTA1 110514Z 10005KT 19/09 A3021 RMK A01 T01900092  RH  053%=      5-min Rain = 0
KTA1 110515Z 09005KT 19/09 A3021 RMK A01 T01900092  RH  053%=      5-min Rain = 0
KTA1 110516Z 09005KT 19/09 A3021 RMK A01 T01890092  RH  053%=      5-min Rain = 0
KTA1 110517Z 09006KT 19/09 A3021 RMK A01 T01890092  RH  053%=      5-min Rain = 0
KTA1 110518Z 09006KT 19/09 A3021 RMK A01 T01890092  RH  053%=      5-min Rain = 0
KTA1 110519Z 09006KT 19/09 A3021 RMK A01 T01880092  RH  053%=      5-min Rain = 0
KTA1 110520Z 09006KT 19/09 A3021 RMK A01 T01880092  RH  054%=      5-min Rain = 0
KTA1 110521Z 09006KT 19/09 A3021 RMK A01 T01870091  RH  054%=      5-min Rain = 0
KTA1 110522Z 09006KT 19/09 A3021 RMK A01 T01870091  RH  054%=      5-min Rain = 0
KTA1 110523Z 09006KT 19/09 A3021 RMK A01 T01870091  RH  054%=      5-min Rain = 0
KTA1 110524Z 09006KT 19/09 A3021 RMK A01 T01870091  RH  054%=      5-min Rain = 0
KTA1 110525Z 09006KT 19/09 A3021 RMK A01 T01870092  RH  054%=      5-min Rain = 0
KTA1 110526Z 09005KT 19/09 A3021 RMK A01 T01870092  RH  054%=      5-min Rain = 0
KTA1 110527Z 09005KT 19/09 A3021 RMK A01 T01860092  RH  054%=      5-min Rain = 0
KTA1 110528Z 09005KT 19/09 A3021 RMK A01 T01860092  RH  054%=      5-min Rain = 0
KTA1 110529Z 09005KT 19/09 A3021 RMK A01 T01850091  RH  054%=      5-min Rain = 0
KTA1 110530Z 09005KT 18/09 A3021 RMK A01 T01840091  RH  055%=      5-min Rain = 0
KTA1 110531Z 09005KT 18/09 A3021 RMK A01 T01840092  RH  055%=      5-min Rain = 0
KTA1 110532Z 09006KT 18/09 A3021 RMK A01 T01830092  RH  055%=      5-min Rain = 0
KTA1 110533Z 09006KT 18/09 A3021 RMK A01 T01820091  RH  055%=      5-min Rain = 0
KTA1 110534Z 09006KT 18/09 A3021 RMK A01 T01820092  RH  056%=      5-min Rain = 0
KTA1 110535Z 09006KT 18/09 A3021 RMK A01 T01820092  RH  056%=      5-min Rain = 0
KTA1 110536Z 09006KT 18/09 A3021 RMK A01 T01820092  RH  056%=      5-min Rain = 0
KTA1 110537Z 09006KT 18/09 A3021 RMK A01 T01820092  RH  056%=      5-min Rain = 0
KTA1 110538Z 09006KT 18/09 A3021 RMK A01 T01820092  RH  056%=      5-min Rain = 0
KTA1 110539Z 09006KT 18/09 A3021 RMK A01 T01820093  RH  056%=      5-min Rain = 0
KTA1 110540Z 09006KT 18/09 A3021 RMK A01 T01820093  RH  056%=      5-min Rain = 0
KTA1 110541Z 09006KT 18/09 A3021 RMK A01 T01820094  RH  056%=      5-min Rain = 0
KTA1 110542Z 09006KT 18/09 A3021 RMK A01 T01820094  RH  057%=      5-min Rain = 0
KTA1 110543Z 09006KT 18/09 A3021 RMK A01 T01820094  RH  057%=      5-min Rain = 0
KTA1 110544Z 09006KT 18/09 A3021 RMK A01 T01820094  RH  057%=      5-min Rain = 0
KTA1 110545Z 09006KT 18/09 A3021 RMK A01 T01820094  RH  057%=      5-min Rain = 0
KTA1 110546Z 09006KT 18/09 A3021 RMK A01 T01820094  RH  057%=      5-min Rain = 0
KTA1 110547Z 09006KT 18/09 A3021 RMK A01 T01820094  RH  057%=      5-min Rain = 0
KTA1 110548Z 10006KT 18/09 A3021 RMK A01 T01820094  RH  057%=      5-min Rain = 0
KTA1 110549Z 09006KT 18/09 A3021 RMK A01 T01820094  RH  056%=      5-min Rain = 0
KTA1 110550Z 10006KT 18/09 A3021 RMK A01 T01830094  RH  056%=      5-min Rain = 0
KTA1 110551Z 10006KT 18/09 A3021 RMK A01 T01830094  RH  056%=      5-min Rain = 0
KTA1 110552Z 10006KT 18/09 A3021 RMK A01 T01830094  RH  056%=      5-min Rain = 0
KTA1 110553Z 10006KT 18/09 A3021 RMK A01 T01830094  RH  056%=      5-min Rain = 0
KTA1 110554Z 10006KT 18/09 A3021 RMK A01 T01830094  RH  056%=      5-min Rain = 0
KTA1 110555Z 10006KT 18/09 A3021 RMK A01 T01830094  RH  056%=      5-min Rain = 0
KTA1 110556Z 10006KT 18/09 A3021 RMK A01 T01830093  RH  056%=      5-min Rain = 0
KTA1 110557Z 10005KT 18/09 A3021 RMK A01 T01820093  RH  056%=      5-min Rain = 0
KTA1 110558Z 10005KT 18/09 A3021 RMK A01 T01820093  RH  056%=      5-min Rain = 0
KTA1 110559Z 10005KT 18/09 A3021 RMK A01 T01810093  RH  056%=      5-min Rain = 0
KTA1 110600Z 10005KT 18/09 A3021 RMK A01 T01800093  RH  057%=      5-min Rain = 0
KTA1 110601Z 10005KT 18/09 A3021 RMK A01 T01790093  RH  057%=      5-min Rain = 0
KTA1 110602Z 11005KT 18/09 A3021 RMK A01 T01790093  RH  057%=      5-min Rain = 0
KTA1 110603Z 11005KT 18/09 A3021 RMK A01 T01780093  RH  057%=      5-min Rain = 0
KTA1 110604Z 11004KT 18/09 A3021 RMK A01 T01780093  RH  057%=      5-min Rain = 0
KTA1 110605Z 11004KT 18/09 A3021 RMK A01 T01780093  RH  058%=      5-min Rain = 0
KTA1 110606Z 12004KT 18/09 A3021 RMK A01 T01770093  RH  058%=      5-min Rain = 0
KTA1 110607Z 13004KT 18/09 A3021 RMK A01 T01760092  RH  058%=      5-min Rain = 0
KTA1 110608Z 13003KT 18/09 A3021 RMK A01 T01760093  RH  058%=      5-min Rain = 0
KTA1 110609Z 13003KT 18/09 A3021 RMK A01 T01750093  RH  059%=      5-min Rain = 0
KTA1 110610Z 13004KT 17/09 A3021 RMK A01 T01740093  RH  059%=      5-min Rain = 0
KTA1 110611Z 13004KT 17/09 A3021 RMK A01 T01740092  RH  059%=      5-min Rain = 0
KTA1 110612Z 13003KT 17/09 A3021 RMK A01 T01740092  RH  059%=      5-min Rain = 0
KTA1 110613Z 13003KT 17/09 A3021 RMK A01 T01740091  RH  058%=      5-min Rain = 0
KTA1 110614Z 13003KT 17/09 A3021 RMK A01 T01740092  RH  058%=      5-min Rain = 0
KTA1 110615Z 13003KT 17/09 A3021 RMK A01 T01740092  RH  058%=      5-min Rain = 0
KTA1 110616Z 12003KT 17/09 A3021 RMK A01 T01740092  RH  058%=      5-min Rain = 0
KTA1 110617Z 12003KT 17/09 A3021 RMK A01 T01740092  RH  058%=      5-min Rain = 0
KTA1 110618Z 12003KT 17/09 A3021 RMK A01 T01740091  RH  058%=      5-min Rain = 0
KTA1 110619Z 12003KT 17/09 A3021 RMK A01 T01740092  RH  058%=      5-min Rain = 0
KTA1 110620Z 12003KT 17/09 A3021 RMK A01 T01740092  RH  058%=      5-min Rain = 0
KTA1 110621Z 12003KT 17/09 A3021 RMK A01 T01740092  RH  058%=      5-min Rain = 0
KTA1 110622Z 12003KT 17/09 A3021 RMK A01 T01740092  RH  059%=      5-min Rain = 0
KTA1 110623Z 12003KT 17/09 A3021 RMK A01 T01740092  RH  058%=      5-min Rain = 0
KTA1 110624Z 12003KT 17/09 A3021 RMK A01 T01740092  RH  058%=      5-min Rain = 0
KTA1 110625Z 11003KT 17/09 A3021 RMK A01 T01740092  RH  058%=      5-min Rain = 0
KTA1 110626Z 11004KT 18/09 A3021 RMK A01 T01750092  RH  058%=      5-min Rain = 0
KTA1 110627Z 11004KT 17/09 A3021 RMK A01 T01740092  RH  058%=      5-min Rain = 0
KTA1 110628Z 11004KT 17/09 A3021 RMK A01 T01740092  RH  059%=      5-min Rain = 0
KTA1 110629Z 11004KT 17/09 A3021 RMK A01 T01740092  RH  059%=      5-min Rain = 0
KTA1 110630Z 11004KT 17/09 A3021 RMK A01 T01740093  RH  059%=      5-min Rain = 0
KTA1 110631Z 10004KT 17/09 A3021 RMK A01 T01730093  RH  059%=      5-min Rain = 0
KTA1 110632Z 10004KT 17/09 A3021 RMK A01 T01740093  RH  059%=      5-min Rain = 0
KTA1 110633Z 10004KT 17/09 A3021 RMK A01 T01730093  RH  059%=      5-min Rain = 0
KTA1 110634Z 10005KT 17/09 A3021 RMK A01 T01740094  RH  059%=      5-min Rain = 0
KTA1 110635Z 10005KT 17/09 A3021 RMK A01 T01730093  RH  059%=      5-min Rain = 0
KTA1 110636Z 10005KT 17/09 A3021 RMK A01 T01740093  RH  059%=      5-min Rain = 0
KTA1 110637Z 10005KT 17/09 A3021 RMK A01 T01740092  RH  059%=      5-min Rain = 0
KTA1 110638Z 10005KT 18/09 A3021 RMK A01 T01750092  RH  058%=      5-min Rain = 0
KTA1 110639Z 10004KT 18/09 A3021 RMK A01 T01750093  RH  058%=      5-min Rain = 0
KTA1 110640Z 10004KT 18/09 A3021 RMK A01 T01750092  RH  058%=      5-min Rain = 0
KTA1 110641Z 10004KT 18/09 A3021 RMK A01 T01750092  RH  058%=      5-min Rain = 0
KTA1 110642Z 10004KT 18/09 A3021 RMK A01 T01750092  RH  058%=      5-min Rain = 0
KTA1 110643Z 10004KT 18/09 A3021 RMK A01 T01750092  RH  058%=      5-min Rain = 0
KTA1 110644Z 10004KT 17/09 A3021 RMK A01 T01740092  RH  059%=      5-min Rain = 0
KTA1 110645Z 10004KT 17/09 A3021 RMK A01 T01740093  RH  059%=      5-min Rain = 0
KTA1 110646Z 10004KT 17/09 A3021 RMK A01 T01730092  RH  059%=      5-min Rain = 0
KTA1 110647Z 10004KT 17/09 A3021 RMK A01 T01730092  RH  059%=      5-min Rain = 0
KTA1 110648Z 10004KT 17/09 A3021 RMK A01 T01720092  RH  059%=      5-min Rain = 0
KTA1 110649Z 10004KT 17/09 A3021 RMK A01 T01710091  RH  059%=      5-min Rain = 0
KTA1 110650Z 10004KT 17/09 A3021 RMK A01 T01710092  RH  059%=      5-min Rain = 0
KTA1 110651Z 10004KT 17/09 A3021 RMK A01 T01710091  RH  059%=      5-min Rain = 0
KTA1 110652Z 10004KT 17/09 A3021 RMK A01 T01700092  RH  060%=      5-min Rain = 0
KTA1 110653Z 10004KT 17/09 A3021 RMK A01 T01700092  RH  060%=      5-min Rain = 0
KTA1 110654Z 10005KT 17/09 A3021 RMK A01 T01700093  RH  060%=      5-min Rain = 0
KTA1 110655Z 10005KT 17/09 A3021 RMK A01 T01700093  RH  060%=      5-min Rain = 0
KTA1 110656Z 10005KT 17/09 A3021 RMK A01 T01700092  RH  060%=      5-min Rain = 0
KTA1 110657Z 11005KT 17/09 A3021 RMK A01 T01700093  RH  061%=      5-min Rain = 0
KTA1 110658Z 11005KT 17/09 A3021 RMK A01 T01700094  RH  061%=      5-min Rain = 0
KTA1 110659Z 11004KT 17/09 A3021 RMK A01 T01700094  RH  061%=      5-min Rain = 0
KTA1 110700Z 11004KT 17/10 A3021 RMK A01 T01700095  RH  061%=      5-min Rain = 0
KTA1 110701Z 11004KT 17/10 A3021 RMK A01 T01700095  RH  061%=      5-min Rain = 0
KTA1 110702Z 11004KT 17/09 A3021 RMK A01 T01690094  RH  061%=      5-min Rain = 0
KTA1 110703Z 11004KT 17/09 A3021 RMK A01 T01690094  RH  061%=      5-min Rain = 0
KTA1 110704Z 11004KT 17/09 A3021 RMK A01 T01690094  RH  061%=      5-min Rain = 0
KTA1 110705Z 11004KT 17/09 A3021 RMK A01 T01690094  RH  061%=      5-min Rain = 0
KTA1 110706Z 11004KT 17/09 A3021 RMK A01 T01680094  RH  061%=      5-min Rain = 0
KTA1 110707Z 11004KT 17/09 A3021 RMK A01 T01680094  RH  061%=      5-min Rain = 0
KTA1 110708Z 11005KT 17/09 A3021 RMK A01 T01680093  RH  061%=      5-min Rain = 0
KTA1 110709Z 11004KT 17/09 A3021 RMK A01 T01670093  RH  061%=      5-min Rain = 0
KTA1 110710Z 11004KT 17/09 A3021 RMK A01 T01670093  RH  061%=      5-min Rain = 0
KTA1 110711Z 11004KT 17/09 A3021 RMK A01 T01670093  RH  062%=      5-min Rain = 0
KTA1 110712Z 11004KT 17/09 A3021 RMK A01 T01670093  RH  062%=      5-min Rain = 0
KTA1 110713Z 11004KT 17/09 A3021 RMK A01 T01660093  RH  062%=      5-min Rain = 0
KTA1 110714Z 11004KT 17/09 A3021 RMK A01 T01660093  RH  062%=      5-min Rain = 0
KTA1 110715Z 11004KT 17/09 A3021 RMK A01 T01660093  RH  062%=      5-min Rain = 0
KTA1 110716Z 11004KT 17/09 A3021 RMK A01 T01660092  RH  062%=      5-min Rain = 0
KTA1 110717Z 11004KT 17/09 A3021 RMK A01 T01660092  RH  062%=      5-min Rain = 0
KTA1 110718Z 12004KT 17/09 A3021 RMK A01 T01660092  RH  062%=      5-min Rain = 0
KTA1 110719Z 12004KT 17/09 A3021 RMK A01 T01660093  RH  062%=      5-min Rain = 0
KTA1 110720Z 12004KT 17/09 A3021 RMK A01 T01670093  RH  062%=      5-min Rain = 0
KTA1 110721Z 12004KT 17/09 A3021 RMK A01 T01670092  RH  061%=      5-min Rain = 0
KTA1 110722Z 12004KT 17/09 A3021 RMK A01 T01670092  RH  061%=      5-min Rain = 0
KTA1 110723Z 12004KT 17/09 A3021 RMK A01 T01670092  RH  061%=      5-min Rain = 0
KTA1 110724Z 12004KT 17/09 A3021 RMK A01 T01670092  RH  061%=      5-min Rain = 0
KTA1 110725Z 12004KT 17/09 A3021 RMK A01 T01670091  RH  061%=      5-min Rain = 0
KTA1 110726Z 12004KT 17/09 A302 RMK A01 T01670092  RH  061%=      5-min Rain = 0
KTA1 110727Z 12004KT 17/09 A302 RMK A01 T01670092  RH  061%=      5-min Rain = 0
KTA1 110728Z 12004KT 17/09 A302 RMK A01 T01670091  RH  061%=      5-min Rain = 0
KTA1 110729Z 12004KT 17/09 A302 RMK A01 T01670091  RH  061%=      5-min Rain = 0
KTA1 110730Z 12004KT 17/09 A302 RMK A01 T01670091  RH  061%=      5-min Rain = 0
KTA1 110731Z 12004KT 17/09 A302 RMK A01 T01670090  RH  060%=      5-min Rain = 0
KTA1 110732Z 12004KT 17/09 A302 RMK A01 T01670090  RH  060%=      5-min Rain = 0
KTA1 110733Z 12004KT 17/09 A302 RMK A01 T01670090  RH  060%=      5-min Rain = 0
KTA1 110734Z 12005KT 17/09 A302 RMK A01 T01670089  RH  060%=      5-min Rain = 0
KTA1 110735Z 12005KT 17/09 A302 RMK A01 T01670089  RH  060%=      5-min Rain = 0
KTA1 110736Z 12004KT 17/09 A302 RMK A01 T01670089  RH  060%=      5-min Rain = 0
KTA1 110737Z 12004KT 17/09 A302 RMK A01 T01670089  RH  060%=      5-min Rain = 0
KTA1 110738Z 12004KT 17/09 A302 RMK A01 T01660089  RH  060%=      5-min Rain = 0
KTA1 110739Z 12004KT 17/09 A302 RMK A01 T01660089  RH  060%=      5-min Rain = 0
KTA1 110740Z 12004KT 17/09 A302 RMK A01 T01660089  RH  060%=      5-min Rain = 0
KTA1 110741Z 12004KT 17/09 A302 RMK A01 T01660089  RH  060%=      5-min Rain = 0
KTA1 110742Z 12004KT 17/09 A302 RMK A01 T01660089  RH  060%=      5-min Rain = 0
KTA1 110743Z 12004KT 17/09 A302 RMK A01 T01650088  RH  060%=      5-min Rain = 0
KTA1 110744Z 12004KT 17/09 A3021 RMK A01 T01650088  RH  060%=      5-min Rain = 0
KTA1 110745Z 12004KT 17/09 A3021 RMK A01 T01650088  RH  060%=      5-min Rain = 0
KTA1 110746Z 12004KT 17/09 A3021 RMK A01 T01650088  RH  060%=      5-min Rain = 0
KTA1 110747Z 12004KT 17/09 A3021 RMK A01 T01650088  RH  060%=      5-min Rain = 0
KTA1 110748Z 12004KT 16/09 A3021 RMK A01 T01640088  RH  060%=      5-min Rain = 0
KTA1 110749Z 12004KT 16/09 A3021 RMK A01 T01640088  RH  060%=      5-min Rain = 0
KTA1 110750Z 12004KT 16/09 A3021 RMK A01 T01640088  RH  060%=      5-min Rain = 0
KTA1 110751Z 13005KT 16/09 A3021 RMK A01 T01640088  RH  061%=      5-min Rain = 0
KTA1 110752Z 13004KT 16/09 A3021 RMK A01 T01640087  RH  060%=      5-min Rain = 0
KTA1 110753Z 13005KT 16/09 A3021 RMK A01 T01640088  RH  061%=      5-min Rain = 0
KTA1 110754Z 13005KT 16/09 A3021 RMK A01 T01640088  RH  061%=      5-min Rain = 0
KTA1 110755Z 13005KT 16/09 A3021 RMK A01 T01630088  RH  061%=      5-min Rain = 0
KTA1 110756Z 13005KT 16/09 A3021 RMK A01 T01630088  RH  061%=      5-min Rain = 0
KTA1 110757Z 13005KT 16/09 A3021 RMK A01 T01630089  RH  062%=      5-min Rain = 0
KTA1 110758Z 13005KT 16/09 A3021 RMK A01 T01620089  RH  062%=      5-min Rain = 0
KTA1 110759Z 14005KT 16/09 A3021 RMK A01 T01610088  RH  062%=      5-min Rain = 0
KTA1 110800Z 14005KT 16/09 A3021 RMK A01 T01610088  RH  062%=      5-min Rain = 0
KTA1 110801Z 13005KT 16/09 A3021 RMK A01 T01610088  RH  062%=      5-min Rain = 0
KTA1 110802Z 14005KT 16/09 A3021 RMK A01 T01610089  RH  062%=      5-min Rain = 0
KTA1 110803Z 14005KT 16/09 A3021 RMK A01 T01610088  RH  062%=      5-min Rain = 0
KTA1 110804Z 13005KT 16/09 A3021 RMK A01 T01600088  RH  062%=      5-min Rain = 0
KTA1 110805Z 13005KT 16/09 A3021 RMK A01 T01610088  RH  062%=      5-min Rain = 0
KTA1 110806Z 13006KT 16/09 A3021 RMK A01 T01610088  RH  062%=      5-min Rain = 0
KTA1 110807Z 13006KT 16/09 A3021 RMK A01 T01620087  RH  061%=      5-min Rain = 0
KTA1 110808Z 13006KT 16/09 A3021 RMK A01 T01620087  RH  061%=      5-min Rain = 0
KTA1 110809Z 13006KT 16/09 A3021 RMK A01 T01620087  RH  061%=      5-min Rain = 0
KTA1 110810Z 13006KT 16/09 A3021 RMK A01 T01610087  RH  061%=      5-min Rain = 0
KTA1 110811Z 13006KT 16/09 A3021 RMK A01 T01620087  RH  061%=      5-min Rain = 0
KTA1 110812Z 13006KT 16/09 A3021 RMK A01 T01620088  RH  061%=      5-min Rain = 0
KTA1 110813Z 13006KT 16/09 A3021 RMK A01 T01610087  RH  061%=      5-min Rain = 0
KTA1 110814Z 13005KT 16/09 A3021 RMK A01 T01620088  RH  061%=      5-min Rain = 0
KTA1 110815Z 13005KT 16/09 A3021 RMK A01 T01610087  RH  061%=      5-min Rain = 0
KTA1 110816Z 13005KT 16/09 A3021 RMK A01 T01610087  RH  062%=      5-min Rain = 0
KTA1 110817Z 13005KT 16/09 A3021 RMK A01 T01600087  RH  062%=      5-min Rain = 0
KTA1 110818Z 13005KT 16/09 A3021 RMK A01 T01600087  RH  062%=      5-min Rain = 0
KTA1 110819Z 13005KT 16/09 A3021 RMK A01 T01600086  RH  062%=      5-min Rain = 0
KTA1 110820Z 13005KT 16/09 A3021 RMK A01 T01600087  RH  062%=      5-min Rain = 0
KTA1 110821Z 13005KT 16/09 A3021 RMK A01 T01600087  RH  062%=      5-min Rain = 0
KTA1 110822Z 12005KT 16/09 A3021 RMK A01 T01600088  RH  062%=      5-min Rain = 0
KTA1 110823Z 13005KT 16/09 A3021 RMK A01 T01600088  RH  062%=      5-min Rain = 0
KTA1 110824Z 13004KT 16/09 A3021 RMK A01 T01590088  RH  063%=      5-min Rain = 0
KTA1 110825Z 13004KT 16/09 A3021 RMK A01 T01590088  RH  063%=      5-min Rain = 0
KTA1 110826Z 13004KT 16/09 A3021 RMK A01 T01590089  RH  063%=      5-min Rain = 0
KTA1 110827Z 13004KT 16/09 A3021 RMK A01 T01590089  RH  063%=      5-min Rain = 0
KTA1 110828Z 13004KT 16/09 A3021 RMK A01 T01590089  RH  063%=      5-min Rain = 0
KTA1 110829Z 13004KT 16/09 A3021 RMK A01 T01590090  RH  063%=      5-min Rain = 0
KTA1 110830Z 12005KT 16/09 A3021 RMK A01 T01590089  RH  063%=      5-min Rain = 0
KTA1 110831Z 12004KT 16/09 A3021 RMK A01 T01590089  RH  063%=      5-min Rain = 0
KTA1 110832Z 12004KT 16/09 A3021 RMK A01 T01590088  RH  063%=      5-min Rain = 0
KTA1 110833Z 12004KT 16/09 A3021 RMK A01 T01590089  RH  063%=      5-min Rain = 0
KTA1 110834Z 12004KT 16/09 A302 RMK A01 T01590089  RH  063%=      5-min Rain = 0
KTA1 110835Z 12004KT 16/09 A302 RMK A01 T01590089  RH  063%=      5-min Rain = 0
KTA1 110836Z 12004KT 16/09 A302 RMK A01 T01590089  RH  063%=      5-min Rain = 0
KTA1 110837Z 12004KT 16/09 A302 RMK A01 T01590089  RH  063%=      5-min Rain = 0
KTA1 110838Z 12004KT 16/09 A302 RMK A01 T01590089  RH  063%=      5-min Rain = 0
KTA1 110839Z 12004KT 16/09 A302 RMK A01 T01590088  RH  063%=      5-min Rain = 0
KTA1 110840Z 12004KT 16/09 A302 RMK A01 T01590089  RH  063%=      5-min Rain = 0
KTA1 110841Z 12004KT 16/09 A302 RMK A01 T01590088  RH  063%=      5-min Rain = 0
KTA1 110842Z 13004KT 16/09 A302 RMK A01 T01590088  RH  063%=      5-min Rain = 0
KTA1 110843Z 13004KT 16/09 A302 RMK A01 T01590088  RH  063%=      5-min Rain = 0
KTA1 110844Z 13004KT 16/09 A302 RMK A01 T01590088  RH  063%=      5-min Rain = 0
KTA1 110845Z 13003KT 16/09 A302 RMK A01 T01590088  RH  063%=      5-min Rain = 0
KTA1 110846Z 13004KT 16/09 A3021 RMK A01 T01590088  RH  063%=      5-min Rain = 0
KTA1 110847Z 13004KT 16/09 A3021 RMK A01 T01590088  RH  063%=      5-min Rain = 0
KTA1 110848Z 13004KT 16/09 A3021 RMK A01 T01590088  RH  063%=      5-min Rain = 0
KTA1 110849Z 13004KT 16/09 A3021 RMK A01 T01600089  RH  063%=      5-min Rain = 0
KTA1 110850Z 13004KT 16/09 A3021 RMK A01 T01600088  RH  062%=      5-min Rain = 0
KTA1 110851Z 13004KT 16/09 A3021 RMK A01 T01600088  RH  062%=      5-min Rain = 0
KTA1 110852Z 13004KT 16/09 A3021 RMK A01 T01600088  RH  062%=      5-min Rain = 0
KTA1 110853Z 13004KT 16/09 A3021 RMK A01 T01600089  RH  062%=      5-min Rain = 0
KTA1 110854Z 12004KT 16/09 A3021 RMK A01 T01610089  RH  062%=      5-min Rain = 0
KTA1 110855Z 12004KT 16/09 A3021 RMK A01 T01610089  RH  062%=      5-min Rain = 0
KTA1 110856Z 12004KT 16/09 A3021 RMK A01 T01610088  RH  062%=      5-min Rain = 0
KTA1 110857Z 12004KT 16/09 A3021 RMK A01 T01610088  RH  062%=      5-min Rain = 0
KTA1 110858Z 12004KT 16/09 A3021 RMK A01 T01610088  RH  062%=      5-min Rain = 0
KTA1 110859Z 12004KT 16/09 A3021 RMK A01 T01610088  RH  062%=      5-min Rain = 0
KTA1 110900Z 12004KT 16/09 A3021 RMK A01 T01620088  RH  062%=      5-min Rain = 0
KTA1 110901Z 12004KT 16/09 A3021 RMK A01 T01610088  RH  062%=      5-min Rain = 0
KTA1 110902Z 12004KT 16/09 A3021 RMK A01 T01620088  RH  062%=      5-min Rain = 0
KTA1 110903Z 12004KT 16/09 A3021 RMK A01 T01620088  RH  062%=      5-min Rain = 0
KTA1 110904Z 12004KT 16/09 A3021 RMK A01 T01610087  RH  061%=      5-min Rain = 0
KTA1 110905Z 12004KT 16/09 A3021 RMK A01 T01620088  RH  061%=      5-min Rain = 0
KTA1 110906Z 12004KT 16/09 A3021 RMK A01 T01620088  RH  061%=      5-min Rain = 0
KTA1 110907Z 12004KT 16/09 A3021 RMK A01 T01620088  RH  061%=      5-min Rain = 0
KTA1 110908Z 12004KT 16/09 A3021 RMK A01 T01620088  RH  061%=      5-min Rain = 0
KTA1 110909Z 12004KT 16/09 A3021 RMK A01 T01610087  RH  061%=      5-min Rain = 0
KTA1 110910Z 12004KT 16/09 A3021 RMK A01 T01620088  RH  061%=      5-min Rain = 0
KTA1 110911Z 12004KT 16/09 A3021 RMK A01 T01620088  RH  061%=      5-min Rain = 0
KTA1 110912Z 12004KT 16/09 A3021 RMK A01 T01620087  RH  061%=      5-min Rain = 0
KTA1 110913Z 12004KT 16/09 A3021 RMK A01 T01620087  RH  061%=      5-min Rain = 0
KTA1 110914Z 12004KT 16/09 A3021 RMK A01 T01610087  RH  061%=      5-min Rain = 0
KTA1 110915Z 12004KT 16/09 A3021 RMK A01 T01610087  RH  061%=      5-min Rain = 0
KTA1 110916Z 12004KT 16/09 A3021 RMK A01 T01610087  RH  062%=      5-min Rain = 0
KTA1 110917Z 12004KT 16/09 A3021 RMK A01 T01610087  RH  062%=      5-min Rain = 0
KTA1 110918Z 12004KT 16/09 A3021 RMK A01 T01600087  RH  062%=      5-min Rain = 0
KTA1 110919Z 12004KT 16/09 A3021 RMK A01 T01600087  RH  062%=      5-min Rain = 0
KTA1 110920Z 12004KT 16/09 A3021 RMK A01 T01600087  RH  062%=      5-min Rain = 0
KTA1 110921Z 12004KT 16/09 A3021 RMK A01 T01600087  RH  062%=      5-min Rain = 0
KTA1 110922Z 12004KT 16/09 A3021 RMK A01 T01600087  RH  062%=      5-min Rain = 0
KTA1 110923Z 12004KT 16/09 A3021 RMK A01 T01600087  RH  062%=      5-min Rain = 0
KTA1 110924Z 12004KT 16/09 A3021 RMK A01 T01600087  RH  062%=      5-min Rain = 0
KTA1 110925Z 12004KT 16/09 A3021 RMK A01 T01600087  RH  062%=      5-min Rain = 0
KTA1 110926Z 12005KT 16/09 A302 RMK A01 T01600088  RH  062%=      5-min Rain = 0
KTA1 110927Z 12005KT 16/09 A302 RMK A01 T01600088  RH  062%=      5-min Rain = 0
KTA1 110928Z 13005KT 16/09 A302 RMK A01 T01590087  RH  062%=      5-min Rain = 0
KTA1 110929Z 13004KT 16/09 A302 RMK A01 T01590088  RH  062%=      5-min Rain = 0
KTA1 110930Z 13004KT 16/09 A302 RMK A01 T01590087  RH  062%=      5-min Rain = 0
KTA1 110931Z 13005KT 16/09 A302 RMK A01 T01590087  RH  062%=      5-min Rain = 0
KTA1 110932Z 13005KT 16/09 A302 RMK A01 T01590087  RH  062%=      5-min Rain = 0
KTA1 110933Z 13005KT 16/09 A302 RMK A01 T01580087  RH  063%=      5-min Rain = 0
KTA1 110934Z 13005KT 16/09 A302 RMK A01 T01580087  RH  063%=      5-min Rain = 0
KTA1 110935Z 13005KT 16/09 A3021 RMK A01 T01570087  RH  063%=      5-min Rain = 0
KTA1 110936Z 13005KT 16/09 A3021 RMK A01 T01570087  RH  063%=      5-min Rain = 0
KTA1 110937Z 13005KT 16/09 A3021 RMK A01 T01570086  RH  063%=      5-min Rain = 0
KTA1 110938Z 13005KT 16/09 A3021 RMK A01 T01560087  RH  063%=      5-min Rain = 0
KTA1 110939Z 13005KT 16/09 A3021 RMK A01 T01560088  RH  064%=      5-min Rain = 0
KTA1 110940Z 13005KT 16/09 A3021 RMK A01 T01560088  RH  064%=      5-min Rain = 0
KTA1 110941Z 12005KT 16/09 A3021 RMK A01 T01560089  RH  064%=      5-min Rain = 0
KTA1 110942Z 12005KT 16/09 A3021 RMK A01 T01560088  RH  064%=      5-min Rain = 0
KTA1 110943Z 12005KT 16/09 A3021 RMK A01 T01560089  RH  064%=      5-min Rain = 0
KTA1 110944Z 12005KT 16/09 A3021 RMK A01 T01560089  RH  064%=      5-min Rain = 0
KTA1 110945Z 12005KT 16/09 A3021 RMK A01 T01560089  RH  064%=      5-min Rain = 0
KTA1 110946Z 12005KT 16/09 A3021 RMK A01 T01550089  RH  065%=      5-min Rain = 0
KTA1 110947Z 12005KT 16/09 A3021 RMK A01 T01550089  RH  065%=      5-min Rain = 0
KTA1 110948Z 12005KT 16/09 A3021 RMK A01 T01550089  RH  065%=      5-min Rain = 0
KTA1 110949Z 12005KT 16/09 A3021 RMK A01 T01550089  RH  065%=      5-min Rain = 0
KTA1 110950Z 12005KT 16/09 A3021 RMK A01 T01550088  RH  064%=      5-min Rain = 0
KTA1 110951Z 12005KT 16/09 A3021 RMK A01 T01550088  RH  065%=      5-min Rain = 0
KTA1 110952Z 12005KT 15/09 A3021 RMK A01 T01540088  RH  065%=      5-min Rain = 0
KTA1 110953Z 12005KT 15/09 A3021 RMK A01 T01540088  RH  065%=      5-min Rain = 0
KTA1 110954Z 12005KT 15/09 A3021 RMK A01 T01540088  RH  065%=      5-min Rain = 0
KTA1 110955Z 12005KT 15/09 A3021 RMK A01 T01530088  RH  065%=      5-min Rain = 0
KTA1 110956Z 12005KT 15/09 A3021 RMK A01 T01530088  RH  065%=      5-min Rain = 0
KTA1 110957Z 12005KT 15/09 A3021 RMK A01 T01530087  RH  065%=      5-min Rain = 0
KTA1 110958Z 12005KT 15/09 A302 RMK A01 T01530087  RH  065%=      5-min Rain = 0
KTA1 110959Z 12005KT 15/09 A302 RMK A01 T01530088  RH  065%=      5-min Rain = 0
KTA1 111000Z 12005KT 15/09 A302 RMK A01 T01520087  RH  065%=      5-min Rain = 0
KTA1 111001Z 12004KT 15/09 A302 RMK A01 T01520087  RH  065%=      5-min Rain = 0
KTA1 111002Z 13004KT 15/09 A3021 RMK A01 T01520087  RH  065%=      5-min Rain = 0
KTA1 111003Z 13004KT 15/09 A302 RMK A01 T01520087  RH  065%=      5-min Rain = 0
KTA1 111004Z 12005KT 15/09 A3021 RMK A01 T01520087  RH  065%=      5-min Rain = 0
KTA1 111005Z 12005KT 15/09 A302 RMK A01 T01520087  RH  065%=      5-min Rain = 0
KTA1 111006Z 12005KT 15/09 A302 RMK A01 T01520087  RH  065%=      5-min Rain = 0
KTA1 111007Z 12005KT 15/09 A302 RMK A01 T01510087  RH  065%=      5-min Rain = 0
KTA1 111008Z 12004KT 15/09 A302 RMK A01 T01510087  RH  066%=      5-min Rain = 0
KTA1 111009Z 12004KT 15/09 A302 RMK A01 T01510087  RH  066%=      5-min Rain = 0
KTA1 111010Z 12004KT 15/09 A302 RMK A01 T01510087  RH  066%=      5-min Rain = 0
KTA1 111011Z 12004KT 15/09 A302 RMK A01 T01510087  RH  066%=      5-min Rain = 0
KTA1 111012Z 12004KT 15/09 A302 RMK A01 T01510088  RH  066%=      5-min Rain = 0
KTA1 111013Z 12004KT 15/09 A302 RMK A01 T01510088  RH  066%=      5-min Rain = 0
KTA1 111014Z 12004KT 15/09 A302 RMK A01 T01510088  RH  066%=      5-min Rain = 0
KTA1 111015Z 12004KT 15/09 A302 RMK A01 T01510088  RH  066%=      5-min Rain = 0
KTA1 111016Z 12004KT 15/09 A302 RMK A01 T01510088  RH  066%=      5-min Rain = 0
KTA1 111017Z 12005KT 15/09 A302 RMK A01 T01510088  RH  066%=      5-min Rain = 0
KTA1 111018Z 12005KT 15/09 A302 RMK A01 T01510089  RH  066%=      5-min Rain = 0
KTA1 111019Z 12004KT 15/09 A302 RMK A01 T01510089  RH  066%=      5-min Rain = 0
KTA1 111020Z 12004KT 15/09 A302 RMK A01 T01510089  RH  066%=      5-min Rain = 0
KTA1 111021Z 12004KT 15/09 A302 RMK A01 T01510089  RH  066%=      5-min Rain = 0
KTA1 111022Z 12004KT 15/09 A302 RMK A01 T01510089  RH  067%=      5-min Rain = 0
KTA1 111023Z 12004KT 15/09 A302 RMK A01 T01510089  RH  067%=      5-min Rain = 0
KTA1 111024Z 12004KT 15/09 A302 RMK A01 T01510089  RH  066%=      5-min Rain = 0
KTA1 111025Z 12004KT 15/09 A302 RMK A01 T01510089  RH  066%=      5-min Rain = 0
KTA1 111026Z 12004KT 15/09 A302 RMK A01 T01510089  RH  066%=      5-min Rain = 0
KTA1 111027Z 12004KT 15/09 A302 RMK A01 T01510089  RH  066%=      5-min Rain = 0
KTA1 111028Z 12004KT 15/09 A302 RMK A01 T01520089  RH  066%=      5-min Rain = 0
KTA1 111029Z 12004KT 15/09 A302 RMK A01 T01520090  RH  066%=      5-min Rain = 0
KTA1 111030Z 12004KT 15/09 A302 RMK A01 T01520090  RH  066%=      5-min Rain = 0
KTA1 111031Z 12004KT 15/09 A302 RMK A01 T01520089  RH  066%=      5-min Rain = 0
KTA1 111032Z 12004KT 15/09 A302 RMK A01 T01520090  RH  066%=      5-min Rain = 0
KTA1 111033Z 12004KT 15/09 A3021 RMK A01 T01530090  RH  066%=      5-min Rain = 0
KTA1 111034Z 12004KT 15/09 A3021 RMK A01 T01530090  RH  066%=      5-min Rain = 0
KTA1 111035Z 12004KT 15/09 A3021 RMK A01 T01530090  RH  066%=      5-min Rain = 0
KTA1 111036Z 12004KT 15/09 A3021 RMK A01 T01530090  RH  066%=      5-min Rain = 0
KTA1 111037Z 12004KT 15/09 A3021 RMK A01 T01530090  RH  066%=      5-min Rain = 0
KTA1 111038Z 13004KT 15/09 A3021 RMK A01 T01530090  RH  066%=      5-min Rain = 0
KTA1 111039Z 13004KT 15/09 A302 RMK A01 T01530090  RH  066%=      5-min Rain = 0
KTA1 111040Z 13004KT 15/09 A302 RMK A01 T01520090  RH  066%=      5-min Rain = 0
KTA1 111041Z 13004KT 15/09 A302 RMK A01 T01520090  RH  066%=      5-min Rain = 0
KTA1 111042Z 13004KT 15/09 A302 RMK A01 T01520090  RH  066%=      5-min Rain = 0
KTA1 111043Z 13004KT 15/09 A302 RMK A01 T01520090  RH  066%=      5-min Rain = 0
KTA1 111044Z 13004KT 15/09 A302 RMK A01 T01520090  RH  066%=      5-min Rain = 0
KTA1 111045Z 13004KT 15/09 A302 RMK A01 T01520090  RH  066%=      5-min Rain = 0
KTA1 111046Z 13004KT 15/09 A302 RMK A01 T01520090  RH  066%=      5-min Rain = 0
KTA1 111047Z 14004KT 15/09 A302 RMK A01 T01520090  RH  066%=      5-min Rain = 0
KTA1 111048Z 14004KT 15/09 A3021 RMK A01 T01520090  RH  066%=      5-min Rain = 0
KTA1 111049Z 14004KT 15/09 A3021 RMK A01 T01510089  RH  066%=      5-min Rain = 0
KTA1 111050Z 14004KT 15/09 A3021 RMK A01 T01510089  RH  066%=      5-min Rain = 0
KTA1 111051Z 14004KT 15/09 A3021 RMK A01 T01510089  RH  067%=      5-min Rain = 0
KTA1 111052Z 13004KT 15/09 A3021 RMK A01 T01510089  RH  067%=      5-min Rain = 0
KTA1 111053Z 13004KT 15/09 A3021 RMK A01 T01510089  RH  067%=      5-min Rain = 0
KTA1 111054Z 13004KT 15/09 A3021 RMK A01 T01510090  RH  067%=      5-min Rain = 0
KTA1 111055Z 13004KT 15/09 A3021 RMK A01 T01510090  RH  067%=      5-min Rain = 0
KTA1 111056Z 13004KT 15/09 A3021 RMK A01 T01510090  RH  067%=      5-min Rain = 0
KTA1 111057Z 13004KT 15/09 A3021 RMK A01 T01510090  RH  067%=      5-min Rain = 0
KTA1 111058Z 12004KT 15/09 A3021 RMK A01 T01500090  RH  067%=      5-min Rain = 0
KTA1 111059Z 12004KT 15/09 A3021 RMK A01 T01500089  RH  067%=      5-min Rain = 0
KTA1 111100Z 12003KT 15/09 A3021 RMK A01 T01500089  RH  067%=      5-min Rain = 0
KTA1 111101Z 12004KT 15/09 A3021 RMK A01 T01500090  RH  067%=      5-min Rain = 0
KTA1 111102Z 12003KT 15/09 A3021 RMK A01 T01490090  RH  067%=      5-min Rain = 0
KTA1 111103Z 11003KT 15/09 A3021 RMK A01 T01500090  RH  067%=      5-min Rain = 0
KTA1 111104Z 11004KT 15/09 A3021 RMK A01 T01490090  RH  067%=      5-min Rain = 0
KTA1 111105Z 12004KT 15/09 A3021 RMK A01 T01490090  RH  068%=      5-min Rain = 0
KTA1 111106Z 12003KT 15/09 A3021 RMK A01 T01490090  RH  068%=      5-min Rain = 0
KTA1 111107Z 12003KT 15/09 A3021 RMK A01 T01490090  RH  068%=      5-min Rain = 0
KTA1 111108Z 12003KT 15/09 A3021 RMK A01 T01500090  RH  068%=      5-min Rain = 0
KTA1 111109Z 11003KT 15/09 A3021 RMK A01 T01490090  RH  068%=      5-min Rain = 0
KTA1 111110Z 11003KT 15/09 A3021 RMK A01 T01490089  RH  068%=      5-min Rain = 0
KTA1 111111Z 11003KT 15/09 A3021 RMK A01 T01480089  RH  068%=      5-min Rain = 0
KTA1 111112Z 11003KT 15/09 A3021 RMK A01 T01470088  RH  068%=      5-min Rain = 0
KTA1 111113Z 11003KT 15/09 A3021 RMK A01 T01460088  RH  068%=      5-min Rain = 0
KTA1 111114Z 11003KT 15/09 A3021 RMK A01 T01460088  RH  068%=      5-min Rain = 0
KTA1 111115Z 11003KT 15/09 A3021 RMK A01 T01450088  RH  068%=      5-min Rain = 0
KTA1 111116Z 11003KT 15/09 A3021 RMK A01 T01450087  RH  068%=      5-min Rain = 0
KTA1 111117Z 11003KT 14/09 A3021 RMK A01 T01440088  RH  069%=      5-min Rain = 0
KTA1 111118Z 11002KT 14/09 A3021 RMK A01 T01440089  RH  069%=      5-min Rain = 0
KTA1 111119Z 11002KT 14/09 A3021 RMK A01 T01430089  RH  070%=      5-min Rain = 0
KTA1 111120Z 11003KT 14/09 A3021 RMK A01 T01440090  RH  070%=      5-min Rain = 0
KTA1 111121Z 11003KT 14/09 A3021 RMK A01 T01440091  RH  070%=      5-min Rain = 0
KTA1 111122Z 12003KT 14/09 A3021 RMK A01 T01440091  RH  070%=      5-min Rain = 0
KTA1 111123Z 12003KT 14/09 A3021 RMK A01 T01440091  RH  070%=      5-min Rain = 0
KTA1 111124Z 12003KT 14/09 A3021 RMK A01 T01440092  RH  071%=      5-min Rain = 0
KTA1 111125Z 12003KT 15/09 A3021 RMK A01 T01450092  RH  071%=      5-min Rain = 0
KTA1 111126Z 12003KT 15/09 A3021 RMK A01 T01450092  RH  070%=      5-min Rain = 0
KTA1 111127Z 12003KT 15/09 A3021 RMK A01 T01450092  RH  070%=      5-min Rain = 0
KTA1 111128Z 12003KT 15/09 A3021 RMK A01 T01450091  RH  070%=      5-min Rain = 0
KTA1 111129Z 12002KT 15/09 A3021 RMK A01 T01450092  RH  070%=      5-min Rain = 0
KTA1 111130Z 12002KT 15/09 A3021 RMK A01 T01450092  RH  071%=      5-min Rain = 0
KTA1 111131Z 12002KT 15/09 A3021 RMK A01 T01450093  RH  071%=      5-min Rain = 0
KTA1 111132Z 12002KT 15/09 A3021 RMK A01 T01450092  RH  071%=      5-min Rain = 0
KTA1 111133Z 12002KT 15/09 A3021 RMK A01 T01450092  RH  071%=      5-min Rain = 0
KTA1 111134Z 12002KT 15/09 A3021 RMK A01 T01450094  RH  071%=      5-min Rain = 0
KTA1 111135Z 12002KT 15/09 A3021 RMK A01 T01450094  RH  071%=      5-min Rain = 0
KTA1 111136Z 12002KT 15/09 A3021 RMK A01 T01450094  RH  071%=      5-min Rain = 0
KTA1 111137Z 12002KT 15/09 A3021 RMK A01 T01450094  RH  071%=      5-min Rain = 0
KTA1 111138Z 12002KT 15/09 A3021 RMK A01 T01450094  RH  071%=      5-min Rain = 0
KTA1 111139Z 12002KT 15/09 A3021 RMK A01 T01450094  RH  071%=      5-min Rain = 0
KTA1 111140Z 12002KT 15/09 A3021 RMK A01 T01450093  RH  071%=      5-min Rain = 0
KTA1 111141Z 12002KT 15/09 A3021 RMK A01 T01450094  RH  071%=      5-min Rain = 0
KTA1 111142Z 12002KT 15/09 A3021 RMK A01 T01450094  RH  071%=      5-min Rain = 0
KTA1 111143Z 12002KT 15/09 A3022 RMK A01 T01450094  RH  071%=      5-min Rain = 0
KTA1 111144Z 12002KT 15/09 A3022 RMK A01 T01450094  RH  071%=      5-min Rain = 0
KTA1 111145Z 12002KT 15/09 A3022 RMK A01 T01450092  RH  071%=      5-min Rain = 0
KTA1 111146Z 12002KT 14/09 A3022 RMK A01 T01440091  RH  070%=      5-min Rain = 0
KTA1 111147Z 12002KT 14/09 A3022 RMK A01 T01430092  RH  071%=      5-min Rain = 0
KTA1 111148Z 11002KT 14/09 A3022 RMK A01 T01440092  RH  071%=      5-min Rain = 0
KTA1 111149Z 11002KT 14/09 A3022 RMK A01 T01440092  RH  071%=      5-min Rain = 0
KTA1 111150Z 11002KT 14/09 A3022 RMK A01 T01440092  RH  071%=      5-min Rain = 0
KTA1 111151Z 10002KT 14/09 A3022 RMK A01 T01430090  RH  071%=      5-min Rain = 0
KTA1 111152Z 10002KT 14/09 A3022 RMK A01 T01420090  RH  071%=      5-min Rain = 0
KTA1 111153Z 10002KT 14/09 A3022 RMK A01 T01410091  RH  071%=      5-min Rain = 0
KTA1 111154Z 10003KT 14/09 A3022 RMK A01 T01410091  RH  072%=      5-min Rain = 0
KTA1 111155Z 09003KT 14/09 A3021 RMK A01 T01410091  RH  072%=      5-min Rain = 0
KTA1 111156Z 09003KT 14/09 A3021 RMK A01 T01420091  RH  072%=      5-min Rain = 0
KTA1 111157Z 09003KT 14/09 A3021 RMK A01 T01420091  RH  071%=      5-min Rain = 0
KTA1 111158Z 09003KT 14/09 A3021 RMK A01 T01420091  RH  071%=      5-min Rain = 0
KTA1 111159Z 09003KT 14/09 A3021 RMK A01 T01420090  RH  071%=      5-min Rain = 0
KTA1 111200Z 09003KT 14/09 A3021 RMK A01 T01420089  RH  071%=      5-min Rain = 0
KTA1 111201Z 09003KT 14/09 A3021 RMK A01 T01420088  RH  070%=      5-min Rain = 0
KTA1 111202Z 09002KT 14/09 A3021 RMK A01 T01410087  RH  070%=      5-min Rain = 0
KTA1 111203Z 09002KT 14/09 A3021 RMK A01 T01400087  RH  070%=      5-min Rain = 0
KTA1 111204Z 09002KT 14/09 A3022 RMK A01 T01390086  RH  070%=      5-min Rain = 0
KTA1 111205Z 09002KT 14/09 A3022 RMK A01 T01380087  RH  071%=      5-min Rain = 0
KTA1 111206Z 09002KT 14/09 A3022 RMK A01 T01380087  RH  071%=      5-min Rain = 0
KTA1 111207Z 09002KT 14/09 A3022 RMK A01 T01370086  RH  071%=      5-min Rain = 0
KTA1 111208Z 08002KT 14/09 A3022 RMK A01 T01370088  RH  072%=      5-min Rain = 0
KTA1 111209Z 08002KT 14/09 A3022 RMK A01 T01370087  RH  072%=      5-min Rain = 0
KTA1 111210Z 08002KT 14/09 A3022 RMK A01 T01370087  RH  072%=      5-min Rain = 0
KTA1 111211Z 08002KT 14/09 A3022 RMK A01 T01360087  RH  072%=      5-min Rain = 0
KTA1 111212Z 08002KT 14/09 A3022 RMK A01 T01360086  RH  072%=      5-min Rain = 0
KTA1 111213Z 08002KT 14/09 A3022 RMK A01 T01360088  RH  072%=      5-min Rain = 0
KTA1 111214Z 08002KT 14/09 A3022 RMK A01 T01360089  RH  073%=      5-min Rain = 0
KTA1 111215Z 08002KT 14/09 A3022 RMK A01 T01370090  RH  073%=      5-min Rain = 0
KTA1 111216Z 08002KT 14/09 A3022 RMK A01 T01380090  RH  072%=      5-min Rain = 0
KTA1 111217Z 08002KT 14/09 A3022 RMK A01 T01390090  RH  072%=      5-min Rain = 0
KTA1 111218Z 08002KT 14/09 A3022 RMK A01 T01390090  RH  072%=      5-min Rain = 0
KTA1 111219Z 07002KT 14/09 A3022 RMK A01 T01390089  RH  072%=      5-min Rain = 0
KTA1 111220Z 07002KT 14/09 A3022 RMK A01 T01390089  RH  072%=      5-min Rain = 0
KTA1 111221Z 07002KT 14/09 A3022 RMK A01 T01390089  RH  072%=      5-min Rain = 0
KTA1 111222Z 06002KT 14/09 A3022 RMK A01 T01390089  RH  072%=      5-min Rain = 0
KTA1 111223Z 06002KT 14/09 A3022 RMK A01 T01380089  RH  072%=      5-min Rain = 0
KTA1 111224Z 06002KT 14/09 A3022 RMK A01 T01390089  RH  072%=      5-min Rain = 0
KTA1 111225Z 06002KT 14/09 A3022 RMK A01 T01390089  RH  072%=      5-min Rain = 0
KTA1 111226Z 06002KT 14/09 A3022 RMK A01 T01390089  RH  072%=      5-min Rain = 0
KTA1 111227Z 06002KT 14/09 A3022 RMK A01 T01390089  RH  072%=      5-min Rain = 0
KTA1 111228Z 06002KT 14/09 A3022 RMK A01 T01380088  RH  072%=      5-min Rain = 0
KTA1 111229Z 07002KT 14/09 A3022 RMK A01 T01380089  RH  072%=      5-min Rain = 0
KTA1 111230Z 07002KT 14/09 A3022 RMK A01 T01380090  RH  072%=      5-min Rain = 0
KTA1 111231Z 08002KT 14/09 A3022 RMK A01 T01380089  RH  072%=      5-min Rain = 0
KTA1 111232Z 08002KT 14/09 A3022 RMK A01 T01380089  RH  073%=      5-min Rain = 0
KTA1 111233Z 08002KT 14/09 A3022 RMK A01 T01380090  RH  072%=      5-min Rain = 0
KTA1 111234Z 08002KT 14/09 A3022 RMK A01 T01380089  RH  072%=      5-min Rain = 0
KTA1 111235Z 08002KT 14/09 A3022 RMK A01 T01380089  RH  072%=      5-min Rain = 0
KTA1 111236Z 08002KT 14/09 A3022 RMK A01 T01380089  RH  072%=      5-min Rain = 0
KTA1 111237Z 08002KT 14/09 A3022 RMK A01 T01380089  RH  072%=      5-min Rain = 0
KTA1 111238Z 07002KT 14/09 A3022 RMK A01 T01380088  RH  072%=      5-min Rain = 0
KTA1 111239Z 07002KT 14/09 A3022 RMK A01 T01380088  RH  072%=      5-min Rain = 0
KTA1 111240Z 07002KT 14/09 A3022 RMK A01 T01380088  RH  072%=      5-min Rain = 0
KTA1 111241Z 07002KT 14/09 A3022 RMK A01 T01380088  RH  072%=      5-min Rain = 0
KTA1 111242Z 07002KT 14/09 A3022 RMK A01 T01390089  RH  072%=      5-min Rain = 0
KTA1 111243Z 07002KT 14/09 A3022 RMK A01 T01390089  RH  072%=      5-min Rain = 0
KTA1 111244Z 07002KT 14/09 A3022 RMK A01 T01390088  RH  072%=      5-min Rain = 0
KTA1 111245Z 07002KT 14/09 A3022 RMK A01 T01390089  RH  071%=      5-min Rain = 0
KTA1 111246Z 07002KT 14/09 A3022 RMK A01 T01400089  RH  071%=      5-min Rain = 0
KTA1 111247Z 07002KT 14/09 A3022 RMK A01 T01400089  RH  071%=      5-min Rain = 0
KTA1 111248Z 07002KT 14/09 A3022 RMK A01 T01400089  RH  071%=      5-min Rain = 0
KTA1 111249Z 07002KT 14/09 A3022 RMK A01 T01410089  RH  071%=      5-min Rain = 0
KTA1 111250Z 07003KT 14/09 A3022 RMK A01 T01410088  RH  071%=      5-min Rain = 0
KTA1 111251Z 07003KT 14/09 A3022 RMK A01 T01410088  RH  070%=      5-min Rain = 0
KTA1 111252Z 07003KT 14/09 A3022 RMK A01 T01410087  RH  070%=      5-min Rain = 0
KTA1 111253Z 07002KT 14/09 A3022 RMK A01 T01400087  RH  070%=      5-min Rain = 0
KTA1 111254Z 06002KT 14/09 A3022 RMK A01 T01400086  RH  070%=      5-min Rain = 0
KTA1 111255Z 06003KT 14/09 A3022 RMK A01 T01400087  RH  071%=      5-min Rain = 0
KTA1 111256Z 06003KT 14/09 A3022 RMK A01 T01400087  RH  070%=      5-min Rain = 0
KTA1 111257Z 06003KT 14/09 A3022 RMK A01 T01400087  RH  070%=      5-min Rain = 0
KTA1 111258Z 06003KT 14/09 A3022 RMK A01 T01400087  RH  070%=      5-min Rain = 0
KTA1 111259Z 06003KT 14/09 A3022 RMK A01 T01410087  RH  070%=      5-min Rain = 0
KTA1 111300Z 06003KT 14/09 A3022 RMK A01 T01410088  RH  070%=      5-min Rain = 0
KTA1 111301Z 06003KT 14/09 A3022 RMK A01 T01410087  RH  070%=      5-min Rain = 0
KTA1 111302Z 06003KT 14/09 A3022 RMK A01 T01410086  RH  070%=      5-min Rain = 0
KTA1 111303Z 06003KT 14/09 A3022 RMK A01 T01410086  RH  069%=      5-min Rain = 0
KTA1 111304Z 06003KT 14/09 A3022 RMK A01 T01400085  RH  069%=      5-min Rain = 0
KTA1 111305Z 06003KT 14/09 A3022 RMK A01 T01400085  RH  069%=      5-min Rain = 0
KTA1 111306Z 06003KT 14/09 A3022 RMK A01 T01400085  RH  070%=      5-min Rain = 0
KTA1 111307Z 06003KT 14/09 A3022 RMK A01 T01400086  RH  070%=      5-min Rain = 0
KTA1 111308Z 06003KT 14/09 A3022 RMK A01 T01400086  RH  070%=      5-min Rain = 0
KTA1 111309Z 06003KT 14/09 A3022 RMK A01 T01410087  RH  070%=      5-min Rain = 0
KTA1 111310Z 06003KT 14/09 A3022 RMK A01 T01420088  RH  070%=      5-min Rain = 0
KTA1 111311Z 06003KT 14/09 A3022 RMK A01 T01430088  RH  070%=      5-min Rain = 0
KTA1 111312Z 06003KT 14/09 A3022 RMK A01 T01440088  RH  069%=      5-min Rain = 0
KTA1 111313Z 06003KT 15/09 A3022 RMK A01 T01450090  RH  069%=      5-min Rain = 0
KTA1 111314Z 06002KT 15/09 A3022 RMK A01 T01460090  RH  069%=      5-min Rain = 0
KTA1 111315Z 06002KT 15/09 A3022 RMK A01 T01470090  RH  068%=      5-min Rain = 0
KTA1 111316Z 06002KT 15/09 A3022 RMK A01 T01480090  RH  068%=      5-min Rain = 0
KTA1 111317Z 06002KT 15/09 A3022 RMK A01 T01490090  RH  068%=      5-min Rain = 0
KTA1 111318Z 06002KT 15/09 A3022 RMK A01 T01500091  RH  068%=      5-min Rain = 0
KTA1 111319Z 07002KT 15/09 A3022 RMK A01 T01510091  RH  067%=      5-min Rain = 0
KTA1 111320Z 07002KT 15/09 A3022 RMK A01 T01520092  RH  067%=      5-min Rain = 0
KTA1 111321Z 07002KT 15/09 A3022 RMK A01 T01540092  RH  067%=      5-min Rain = 0
KTA1 111322Z 07002KT 15/09 A3022 RMK A01 T01540092  RH  066%=      5-min Rain = 0
KTA1 111323Z 07002KT 16/09 A3022 RMK A01 T01550092  RH  066%=      5-min Rain = 0
KTA1 111324Z 07002KT 16/09 A3022 RMK A01 T01560092  RH  066%=      5-min Rain = 0
KTA1 111325Z 07002KT 16/09 A3022 RMK A01 T01560092  RH  066%=      5-min Rain = 0
KTA1 111326Z 07002KT 16/09 A3022 RMK A01 T01570093  RH  066%=      5-min Rain = 0
KTA1 111327Z 07002KT 16/09 A3022 RMK A01 T01580093  RH  065%=      5-min Rain = 0
KTA1 111328Z 07002KT 16/09 A3022 RMK A01 T01600094  RH  065%=      5-min Rain = 0
KTA1 111329Z 07002KT 16/09 A3022 RMK A01 T01610094  RH  064%=      5-min Rain = 0
KTA1 111330Z 07002KT 16/09 A3022 RMK A01 T01620094  RH  064%=      5-min Rain = 0
KTA1 111331Z 08002KT 16/10 A3022 RMK A01 T01640096  RH  064%=      5-min Rain = 0
KTA1 111332Z 08002KT 17/10 A3022 RMK A01 T01650095  RH  063%=      5-min Rain = 0
KTA1 111333Z 08001KT 17/10 A3022 RMK A01 T01660095  RH  063%=      5-min Rain = 0
KTA1 111334Z 08002KT 17/10 A3022 RMK A01 T01670095  RH  063%=      5-min Rain = 0
KTA1 111335Z 09001KT 17/10 A3022 RMK A01 T01680096  RH  062%=      5-min Rain = 0
KTA1 111336Z 09001KT 17/10 A3022 RMK A01 T01690096  RH  062%=      5-min Rain = 0
KTA1 111337Z 10001KT 17/10 A3022 RMK A01 T01710097  RH  062%=      5-min Rain = 0
KTA1 111338Z 10001KT 17/10 A3022 RMK A01 T01730097  RH  061%=      5-min Rain = 0
KTA1 111339Z 09001KT 17/10 A3022 RMK A01 T01730096  RH  060%=      5-min Rain = 0
KTA1 111340Z 09002KT 17/10 A3022 RMK A01 T01740096  RH  060%=      5-min Rain = 0
KTA1 111341Z 09001KT 18/10 A3022 RMK A01 T01750097  RH  060%=      5-min Rain = 0
KTA1 111342Z 09001KT 18/10 A3022 RMK A01 T01760097  RH  060%=      5-min Rain = 0
KTA1 111343Z 08001KT 18/10 A3022 RMK A01 T01760097  RH  060%=      5-min Rain = 0
KTA1 111344Z 08001KT 18/10 A3022 RMK A01 T01760097  RH  060%=      5-min Rain = 0
KTA1 111345Z 08001KT 18/10 A3022 RMK A01 T01760097  RH  060%=      5-min Rain = 0
KTA1 111346Z 09001KT 18/10 A3022 RMK A01 T01770096  RH  059%=      5-min Rain = 0
KTA1 111347Z 09001KT 18/10 A3022 RMK A01 T01780098  RH  060%=      5-min Rain = 0
KTA1 111348Z 09001KT 18/10 A3022 RMK A01 T01790098  RH  059%=      5-min Rain = 0
KTA1 111349Z 08001KT 18/10 A3022 RMK A01 T01790098  RH  059%=      5-min Rain = 0
KTA1 111350Z 09001KT 18/10 A3022 RMK A01 T01800098  RH  059%=      5-min Rain = 0
KTA1 111351Z 10001KT 18/10 A3022 RMK A01 T01800098  RH  059%=      5-min Rain = 0
KTA1 111352Z 09001KT 18/10 A3022 RMK A01 T01810098  RH  058%=      5-min Rain = 0
KTA1 111353Z 10001KT 18/10 A3022 RMK A01 T01810098  RH  058%=      5-min Rain = 0
KTA1 111354Z 09001KT 18/10 A3022 RMK A01 T01820099  RH  058%=      5-min Rain = 0
KTA1 111355Z 09001KT 18/10 A3022 RMK A01 T01830099  RH  058%=      5-min Rain = 0
KTA1 111356Z 09002KT 18/10 A3022 RMK A01 T01840099  RH  058%=      5-min Rain = 0
KTA1 111357Z 09002KT 18/10 A3022 RMK A01 T01840099  RH  058%=      5-min Rain = 0
KTA1 111358Z 08002KT 18/10 A3022 RMK A01 T01840099  RH  058%=      5-min Rain = 0
KTA1 111359Z 08002KT 18/10 A3022 RMK A01 T01840100  RH  058%=      5-min Rain = 0
KTA1 111400Z 08002KT 18/10 A3022 RMK A01 T01840100  RH  058%=      5-min Rain = 0
KTA1 111401Z 09002KT 18/10 A3022 RMK A01 T01840100  RH  058%=      5-min Rain = 0
KTA1 111402Z 10001KT 19/10 A3022 RMK A01 T01850101  RH  058%=      5-min Rain = 0
KTA1 111403Z 08001KT 19/10 A3022 RMK A01 T01870102  RH  058%=      5-min Rain = 0
KTA1 111404Z 10002KT 19/10 A3022 RMK A01 T01880101  RH  057%=      5-min Rain = 0
KTA1 111405Z 11002KT 19/10 A3022 RMK A01 T01880100  RH  056%=      5-min Rain = 0
KTA1 111406Z 12002KT 19/10 A3022 RMK A01 T01890101  RH  057%=      5-min Rain = 0
KTA1 111407Z 11001KT 19/10 A3022 RMK A01 T01900102  RH  057%=      5-min Rain = 0
KTA1 111408Z 09001KT 19/10 A3022 RMK A01 T01900102  RH  056%=      5-min Rain = 0
KTA1 111409Z 10001KT 19/10 A3022 RMK A01 T01910102  RH  056%=      5-min Rain = 0
KTA1 111410Z 11001KT 19/10 A3022 RMK A01 T01920101  RH  055%=      5-min Rain = 0
KTA1 111411Z 12001KT 19/10 A3022 RMK A01 T01920102  RH  056%=      5-min Rain = 0
KTA1 111412Z 11002KT 19/10 A3022 RMK A01 T01930103  RH  056%=      5-min Rain = 0
KTA1 111413Z 11002KT 20/10 A3022 RMK A01 T01950103  RH  055%=      5-min Rain = 0
KTA1 111414Z 13002KT 20/10 A3022 RMK A01 T01950102  RH  055%=      5-min Rain = 0
KTA1 111415Z 13003KT 20/10 A3022 RMK A01 T01950102  RH  055%=      5-min Rain = 0
KTA1 111416Z 12002KT 20/10 A3022 RMK A01 T01950102  RH  055%=      5-min Rain = 0
KTA1 111417Z 12002KT 20/10 A3023 RMK A01 T01960103  RH  055%=      5-min Rain = 0
KTA1 111418Z 13002KT 20/10 A3023 RMK A01 T01960103  RH  055%=      5-min Rain = 0
KTA1 111419Z 13001KT 20/10 A3023 RMK A01 T01970103  RH  055%=      5-min Rain = 0
KTA1 111420Z 14002KT 20/10 A3023 RMK A01 T01980103  RH  054%=      5-min Rain = 0
KTA1 111421Z 14004KT 20/10 A3023 RMK A01 T01990103  RH  054%=      5-min Rain = 0
KTA1 111422Z 15003KT 20/10 A3023 RMK A01 T02000103  RH  053%=      5-min Rain = 0
KTA1 111423Z 15002KT 20/10 A3023 RMK A01 T02010101  RH  053%=      5-min Rain = 0
KTA1 111424Z 15004KT 20/10 A3023 RMK A01 T02020103  RH  053%=      5-min Rain = 0
KTA1 111425Z 16004KT 20/10 A3023 RMK A01 T02010102  RH  053%=      5-min Rain = 0
KTA1 111426Z 16004KT 20/10 A3023 RMK A01 T02010103  RH  053%=      5-min Rain = 0
KTA1 111427Z 16003KT 20/10 A3023 RMK A01 T02010102  RH  053%=      5-min Rain = 0
KTA1 111428Z 17004KT 20/10 A3023 RMK A01 T02010103  RH  053%=      5-min Rain = 0
KTA1 111429Z 17003KT 20/10 A3023 RMK A01 T02010103  RH  053%=      5-min Rain = 0
KTA1 111430Z 16003KT 20/10 A3023 RMK A01 T02010103  RH  053%=      5-min Rain = 0
KTA1 111431Z 17003KT 20/10 A3023 RMK A01 T02010104  RH  053%=      5-min Rain = 0
KTA1 111432Z 16003KT 20/10 A3023 RMK A01 T02020104  RH  053%=      5-min Rain = 0
KTA1 111433Z 14003KT 20/10 A3023 RMK A01 T02020103  RH  053%=      5-min Rain = 0
KTA1 111434Z 16004KT 20/11 A3023 RMK A01 T02030105  RH  053%=      5-min Rain = 0
KTA1 111435Z 16004KT 20/10 A3023 RMK A01 T02040104  RH  053%=      5-min Rain = 0
KTA1 111436Z 18004KT 20/10 A3023 RMK A01 T02040104  RH  052%=      5-min Rain = 0
KTA1 111437Z 17004KT 20/10 A3023 RMK A01 T02040103  RH  052%=      5-min Rain = 0
KTA1 111438Z 17003KT 20/10 A3023 RMK A01 T02040103  RH  052%=      5-min Rain = 0
KTA1 111439Z 18002KT 20/10 A3023 RMK A01 T02040104  RH  052%=      5-min Rain = 0
KTA1 111440Z 15002KT 21/11 A3023 RMK A01 T02050105  RH  052%=      5-min Rain = 0
KTA1 111441Z 18004KT 21/11 A3023 RMK A01 T02070105  RH  052%=      5-min Rain = 0
KTA1 111442Z 19003KT 21/10 A3023 RMK A01 T02070103  RH  051%=      5-min Rain = 0
KTA1 111443Z 18004KT 21/10 A3023 RMK A01 T02070103  RH  051%=      5-min Rain = 0
KTA1 111444Z 17005KT 21/10 A3023 RMK A01 T02070103  RH  051%=      5-min Rain = 0
KTA1 111445Z 18004KT 21/10 A3023 RMK A01 T02070104  RH  052%=      5-min Rain = 0
KTA1 111446Z 18003KT 21/10 A3023 RMK A01 T02070104  RH  051%=      5-min Rain = 0
KTA1 111447Z 20003KT 21/10 A3023 RMK A01 T02080103  RH  051%=      5-min Rain = 0
KTA1 111448Z 20003KT 21/10 A3023 RMK A01 T02080103  RH  051%=      5-min Rain = 0
KTA1 111449Z 19005KT 21/10 A3023 RMK A01 T02080104  RH  051%=      5-min Rain = 0
KTA1 111450Z 18004KT 21/10 A3023 RMK A01 T02090104  RH  051%=      5-min Rain = 0
KTA1 111451Z 19004KT 21/11 A3023 RMK A01 T02090105  RH  051%=      5-min Rain = 0
KTA1 111452Z 21004KT 21/11 A3023 RMK A01 T02090105  RH  051%=      5-min Rain = 0
KTA1 111453Z 22003KT 21/11 A3023 RMK A01 T02100105  RH  051%=      5-min Rain = 0
KTA1 111454Z 23003KT 21/11 A3023 RMK A01 T02100105  RH  051%=      5-min Rain = 0
KTA1 111455Z 21003KT 21/11 A3023 RMK A01 T02100106  RH  051%=      5-min Rain = 0
KTA1 111456Z 22003KT 21/11 A3023 RMK A01 T02110105  RH  051%=      5-min Rain = 0
KTA1 111457Z 19003KT 21/11 A3023 RMK A01 T02110106  RH  051%=      5-min Rain = 0
KTA1 111458Z 19005KT 21/11 A3023 RMK A01 T02120107  RH  051%=      5-min Rain = 0
KTA1 111459Z 20005KT 21/11 A3023 RMK A01 T02120105  RH  050%=      5-min Rain = 0
KTA1 111500Z 19004KT 21/11 A3023 RMK A01 T02130106  RH  050%=      5-min Rain = 0
KTA1 111501Z 22004KT 21/11 A3023 RMK A01 T02120106  RH  051%=      5-min Rain = 0
KTA1 111502Z 22004KT 21/11 A3023 RMK A01 T02120105  RH  050%=      5-min Rain = 0
KTA1 111503Z 22004KT 21/11 A3023 RMK A01 T02130106  RH  050%=      5-min Rain = 0
KTA1 111504Z 22005KT 21/11 A3023 RMK A01 T02140105  RH  050%=      5-min Rain = 0
KTA1 111505Z 23004KT 22/10 A3023 RMK A01 T02150104  RH  049%=      5-min Rain = 0
KTA1 111506Z 22003KT 21/11 A3023 RMK A01 T02140105  RH  050%=      5-min Rain = 0
KTA1 111507Z 22004KT 21/11 A3023 RMK A01 T02140106  RH  050%=      5-min Rain = 0
KTA1 111508Z 22004KT 22/11 A3023 RMK A01 T02150106  RH  050%=      5-min Rain = 0
KTA1 111509Z 22003KT 22/11 A3023 RMK A01 T02150106  RH  050%=      5-min Rain = 0
KTA1 111510Z 22004KT 21/11 A3023 RMK A01 T02140106  RH  050%=      5-min Rain = 0
KTA1 111511Z 20005KT 22/11 A3023 RMK A01 T02150106  RH  050%=      5-min Rain = 0
KTA1 111512Z 19005KT 22/11 A3023 RMK A01 T02150105  RH  049%=      5-min Rain = 0
KTA1 111513Z 20004KT 22/11 A3023 RMK A01 T02150105  RH  050%=      5-min Rain = 0
KTA1 111514Z 20005KT 22/11 A3023 RMK A01 T02150105  RH  050%=      5-min Rain = 0
KTA1 111515Z 18005KT 22/11 A3023 RMK A01 T02160105  RH  049%=      5-min Rain = 0
KTA1 111516Z 18004KT 22/11 A3023 RMK A01 T02160105  RH  049%=      5-min Rain = 0
KTA1 111517Z 19004KT 22/11 A3023 RMK A01 T02170107  RH  049%=      5-min Rain = 0
KTA1 111518Z 19005KT 22/11 A3023 RMK A01 T02190107  RH  049%=      5-min Rain = 0
KTA1 111519Z 19004KT 22/11 A3023 RMK A01 T02190106  RH  049%=      5-min Rain = 0
KTA1 111520Z 20004KT 22/11 A3023 RMK A01 T02190107  RH  049%=      5-min Rain = 0
KTA1 111521Z 19005KT 22/11 A3023 RMK A01 T02190106  RH  049%=      5-min Rain = 0
KTA1 111522Z 18005KT 22/11 A3023 RMK A01 T02190106  RH  049%=      5-min Rain = 0
KTA1 111523Z 17004KT 22/11 A3023 RMK A01 T02190106  RH  048%=      5-min Rain = 0
KTA1 111524Z 18004KT 22/11 A3023 RMK A01 T02190106  RH  049%=      5-min Rain = 0
KTA1 111525Z 21004KT 22/11 A3023 RMK A01 T02190106  RH  048%=      5-min Rain = 0
KTA1 111526Z 22002KT 22/11 A3023 RMK A01 T02200105  RH  048%=      5-min Rain = 0
KTA1 111527Z 23003KT 22/11 A3023 RMK A01 T02190105  RH  048%=      5-min Rain = 0
KTA1 111528Z 20004KT 22/11 A3023 RMK A01 T02190106  RH  049%=      5-min Rain = 0
KTA1 111529Z 19004KT 22/11 A3023 RMK A01 T02220109  RH  049%=      5-min Rain = 0
KTA1 111530Z 18004KT 22/11 A3023 RMK A01 T02240107  RH  048%=      5-min Rain = 0
KTA1 111531Z 19004KT 22/11 A3023 RMK A01 T02240107  RH  047%=      5-min Rain = 0
KTA1 111532Z 20003KT 22/11 A3023 RMK A01 T02240107  RH  047%=      5-min Rain = 0
KTA1 111533Z 18002KT 22/11 A3023 RMK A01 T02230106  RH  047%=      5-min Rain = 0
KTA1 111534Z 19002KT 22/11 A3023 RMK A01 T02220106  RH  048%=      5-min Rain = 0
KTA1 111535Z 18002KT 22/11 A3023 RMK A01 T02230105  RH  047%=      5-min Rain = 0
KTA1 111536Z 18003KT 22/11 A3023 RMK A01 T02240106  RH  047%=      5-min Rain = 0
KTA1 111537Z 18005KT 23/11 A3023 RMK A01 T02260107  RH  047%=      5-min Rain = 0
KTA1 111538Z 19004KT 23/11 A3023 RMK A01 T02270106  RH  046%=      5-min Rain = 0
KTA1 111539Z 20004KT 23/11 A3023 RMK A01 T02270106  RH  046%=      5-min Rain = 0
KTA1 111540Z 18003KT 23/11 A3023 RMK A01 T02260105  RH  046%=      5-min Rain = 0
KTA1 111541Z 16003KT 23/11 A3023 RMK A01 T02260107  RH  047%=      5-min Rain = 0
KTA1 111542Z 14003KT 23/11 A3024 RMK A01 T02270107  RH  047%=      5-min Rain = 0
KTA1 111543Z 14002KT 23/11 A3024 RMK A01 T02300109  RH  046%=      5-min Rain = 0
KTA1 111544Z 14002KT 23/11 A3023 RMK A01 T02330109  RH  046%=      5-min Rain = 0
KTA1 111545Z 18003KT 23/11 A3023 RMK A01 T02340107  RH  045%=      5-min Rain = 0
KTA1 111546Z 18002KT 24/11 A3023 RMK A01 T02350107  RH  044%=      5-min Rain = 0
KTA1 111547Z 20002KT 23/11 A3023 RMK A01 T02340106  RH  044%=      5-min Rain = 0
KTA1 111548Z 20002KT 23/11 A3023 RMK A01 T02340108  RH  045%=      5-min Rain = 0
KTA1 111549Z 19003KT 23/11 A3023 RMK A01 T02340108  RH  045%=      5-min Rain = 0
KTA1 111550Z 18002KT 23/11 A3023 RMK A01 T02340109  RH  045%=      5-min Rain = 0
KTA1 111551Z 19004KT 24/11 A3023 RMK A01 T02360109  RH  045%=      5-min Rain = 0
KTA1 111552Z 18004KT 24/11 A3023 RMK A01 T02360108  RH  044%=      5-min Rain = 0
KTA1 111553Z 18003KT 24/11 A3023 RMK A01 T02360107  RH  044%=      5-min Rain = 0
KTA1 111554Z 16001KT 24/11 A3023 RMK A01 T02350107  RH  044%=      5-min Rain = 0
KTA1 111555Z 19002KT 24/11 A3023 RMK A01 T02350106  RH  044%=      5-min Rain = 0
KTA1 111556Z 18002KT 24/11 A3023 RMK A01 T02360107  RH  044%=      5-min Rain = 0
KTA1 111557Z 18002KT 24/11 A3023 RMK A01 T02370108  RH  044%=      5-min Rain = 0
KTA1 111558Z 21003KT 24/11 A3023 RMK A01 T02390109  RH  044%=      5-min Rain = 0
KTA1 111559Z 20003KT 24/11 A3023 RMK A01 T02410106  RH  043%=      5-min Rain = 0
KTA1 111600Z 19001KT 24/11 A3023 RMK A01 T02400106  RH  043%=      5-min Rain = 0
KTA1 111601Z 15001KT 24/11 A3023 RMK A01 T02400106  RH  043%=      5-min Rain = 0
KTA1 111602Z 18002KT 24/11 A3023 RMK A01 T02400106  RH  043%=      5-min Rain = 0
KTA1 111603Z 17003KT 24/11 A3023 RMK A01 T02400107  RH  043%=      5-min Rain = 0
KTA1 111604Z 17002KT 24/11 A3023 RMK A01 T02400108  RH  043%=      5-min Rain = 0
KTA1 111605Z 18003KT 24/11 A3023 RMK A01 T02420110  RH  043%=      5-min Rain = 0
KTA1 111606Z 17002KT 24/11 A3023 RMK A01 T02440108  RH  042%=      5-min Rain = 0
KTA1 111607Z 14003KT 24/11 A3023 RMK A01 T02440108  RH  042%=      5-min Rain = 0
KTA1 111608Z 16003KT 24/11 A3023 RMK A01 T02440109  RH  043%=      5-min Rain = 0
KTA1 111609Z 18002KT 25/11 A3023 RMK A01 T02460109  RH  042%=      5-min Rain = 0
KTA1 111610Z 22001KT 25/11 A3023 RMK A01 T02460106  RH  041%=      5-min Rain = 0
KTA1 111611Z 21001KT 25/11 A3023 RMK A01 T02470107  RH  042%=      5-min Rain = 0
KTA1 111612Z 17004KT 25/11 A3023 RMK A01 T02480107  RH  041%=      5-min Rain = 0
KTA1 111613Z 18004KT 25/11 A3023 RMK A01 T02480108  RH  041%=      5-min Rain = 0
KTA1 111614Z 17003KT 25/11 A3023 RMK A01 T02480108  RH  041%=      5-min Rain = 0
KTA1 111615Z 18003KT 25/11 A3023 RMK A01 T02460108  RH  042%=      5-min Rain = 0
KTA1 111616Z 18004KT 25/11 A3023 RMK A01 T02460109  RH  042%=      5-min Rain = 0
KTA1 111617Z 18002KT 25/11 A3023 RMK A01 T02450107  RH  042%=      5-min Rain = 0
KTA1 111618Z 18001KT 24/11 A3023 RMK A01 T02440108  RH  042%=      5-min Rain = 0
KTA1 111619Z 17002KT 25/11 A3023 RMK A01 T02450108  RH  042%=      5-min Rain = 0
KTA1 111620Z 17001KT 25/11 A3023 RMK A01 T02460108  RH  042%=      5-min Rain = 0
KTA1 111621Z 13001KT 25/11 A3023 RMK A01 T02470108  RH  041%=      5-min Rain = 0
KTA1 111622Z 10001KT 25/11 A3023 RMK A01 T02480108  RH  041%=      5-min Rain = 0
KTA1 111623Z 19002KT 25/11 A3023 RMK A01 T02490108  RH  041%=      5-min Rain = 0
KTA1 111624Z 22003KT 25/11 A3023 RMK A01 T02520110  RH  041%=      5-min Rain = 0
KTA1 111625Z 24003KT 25/11 A3023 RMK A01 T02530106  RH  040%=      5-min Rain = 0
KTA1 111626Z 17004KT 25/11 A3023 RMK A01 T02500107  RH  041%=      5-min Rain = 0
KTA1 111627Z 16003KT 25/11 A3023 RMK A01 T02500107  RH  041%=      5-min Rain = 0
KTA1 111628Z 15003KT 25/11 A3023 RMK A01 T02500107  RH  041%=      5-min Rain = 0
KTA1 111629Z 16001KT 25/11 A3023 RMK A01 T02500106  RH  040%=      5-min Rain = 0
KTA1 111630Z 14001KT 25/11 A3023 RMK A01 T02510106  RH  040%=      5-min Rain = 0
KTA1 111631Z 16002KT 25/11 A3023 RMK A01 T02510106  RH  040%=      5-min Rain = 0
KTA1 111632Z 16001KT 25/11 A3023 RMK A01 T02510106  RH  040%=      5-min Rain = 0
KTA1 111633Z 19002KT 25/11 A3023 RMK A01 T02510106  RH  040%=      5-min Rain = 0
KTA1 111634Z 21003KT 25/11 A3023 RMK A01 T02530108  RH  040%=      5-min Rain = 0
KTA1 111635Z 20002KT 25/11 A3023 RMK A01 T02530106  RH  040%=      5-min Rain = 0
KTA1 111636Z 21001KT 25/11 A3023 RMK A01 T02540106  RH  040%=      5-min Rain = 0
KTA1 111637Z 23003KT 25/11 A3023 RMK A01 T02540105  RH  039%=      5-min Rain = 0
KTA1 111638Z 24001KT 25/11 A3023 RMK A01 T02540105  RH  039%=      5-min Rain = 0
KTA1 111639Z 30001KT 25/11 A3023 RMK A01 T02530105  RH  039%=      5-min Rain = 0
KTA1 111640Z 20003KT 25/11 A3023 RMK A01 T02530105  RH  040%=      5-min Rain = 0
KTA1 111641Z 21001KT 25/11 A3023 RMK A01 T02520105  RH  039%=      5-min Rain = 0
KTA1 111642Z 19002KT 25/11 A3023 RMK A01 T02530105  RH  039%=      5-min Rain = 0
KTA1 111643Z 19004KT 25/11 A3023 RMK A01 T02540105  RH  039%=      5-min Rain = 0
KTA1 111644Z 18005KT 26/11 A3023 RMK A01 T02560107  RH  039%=      5-min Rain = 0
KTA1 111645Z 18004KT 26/11 A3023 RMK A01 T02560105  RH  039%=      5-min Rain = 0
KTA1 111646Z 18002KT 26/10 A3023 RMK A01 T02550104  RH  039%=      5-min Rain = 0
KTA1 111647Z 16001KT 25/10 A3023 RMK A01 T02540104  RH  039%=      5-min Rain = 0
KTA1 111648Z 00000KT 26/10 A3022 RMK A01 T02550102  RH  038%=      5-min Rain = 0
KTA1 111649Z 00000KT 26/10 A3022 RMK A01 T02550102  RH  038%=      5-min Rain = 0
KTA1 111650Z 00000KT 26/10 A3022 RMK A01 T02560101  RH  038%=      5-min Rain = 0
KTA1 111651Z 01000KT 26/10 A3022 RMK A01 T02570101  RH  037%=      5-min Rain = 0
KTA1 111652Z 36001KT 26/10 A3022 RMK A01 T02570100  RH  037%=      5-min Rain = 0
KTA1 111653Z 01001KT 26/10 A3022 RMK A01 T02570100  RH  037%=      5-min Rain = 0
KTA1 111654Z 02002KT 26/10 A3022 RMK A01 T02570098  RH  037%=      5-min Rain = 0
KTA1 111655Z 04002KT 26/09 A3022 RMK A01 T02570094  RH  036%=      5-min Rain = 0
KTA1 111656Z 07001KT 26/10 A3022 RMK A01 T02560095  RH  036%=      5-min Rain = 0
KTA1 111657Z 20001KT 26/10 A3022 RMK A01 T02560096  RH  036%=      5-min Rain = 0
KTA1 111658Z 19002KT 26/10 A3022 RMK A01 T02580098  RH  036%=      5-min Rain = 0
KTA1 111659Z 22002KT 26/10 A3022 RMK A01 T02580097  RH  036%=      5-min Rain = 0
KTA1 111700Z 23001KT 26/10 A3022 RMK A01 T02570097  RH  036%=      5-min Rain = 0
KTA1 111701Z 03002KT 26/10 A3022 RMK A01 T02590100  RH  037%=      5-min Rain = 0
KTA1 111702Z 06002KT 26/10 A3022 RMK A01 T02620103  RH  037%=      5-min Rain = 0
KTA1 111703Z 06003KT 26/10 A3022 RMK A01 T02640099  RH  036%=      5-min Rain = 0
KTA1 111704Z 06003KT 27/10 A3022 RMK A01 T02650102  RH  036%=      5-min Rain = 0
KTA1 111705Z 08003KT 27/10 A3022 RMK A01 T02660101  RH  035%=      5-min Rain = 0
KTA1 111706Z 11002KT 27/10 A3022 RMK A01 T02650100  RH  036%=      5-min Rain = 0
KTA1 111707Z 11003KT 27/10 A3022 RMK A01 T02650099  RH  035%=      5-min Rain = 0
KTA1 111708Z 10002KT 26/10 A3022 RMK A01 T02640101  RH  036%=      5-min Rain = 0
KTA1 111709Z 10002KT 27/10 A3022 RMK A01 T02650100  RH  035%=      5-min Rain = 0
KTA1 111710Z 07001KT 27/10 A3022 RMK A01 T02660099  RH  035%=      5-min Rain = 0
KTA1 111711Z 02000KT 27/10 A3022 RMK A01 T02650100  RH  035%=      5-min Rain = 0
KTA1 111712Z 02001KT 27/10 A3022 RMK A01 T02650101  RH  036%=      5-min Rain = 0
KTA1 111713Z 36002KT 27/10 A3022 RMK A01 T02660101  RH  036%=      5-min Rain = 0
KTA1 111714Z 35001KT 27/10 A3022 RMK A01 T02650101  RH  036%=      5-min Rain = 0
KTA1 111715Z 32001KT 26/10 A3022 RMK A01 T02640101  RH  036%=      5-min Rain = 0
KTA1 111716Z 32001KT 26/10 A3022 RMK A01 T02640101  RH  036%=      5-min Rain = 0
KTA1 111717Z 24002KT 26/10 A3022 RMK A01 T02640101  RH  036%=      5-min Rain = 0
KTA1 111718Z 23002KT 27/10 A3022 RMK A01 T02650101  RH  036%=      5-min Rain = 0
KTA1 111719Z 24000KT 27/10 A3022 RMK A01 T02650102  RH  036%=      5-min Rain = 0
KTA1 111720Z 14000KT 27/10 A3022 RMK A01 T02660103  RH  036%=      5-min Rain = 0
KTA1 111721Z 15000KT 27/10 A3022 RMK A01 T02680104  RH  036%=      5-min Rain = 0
KTA1 111722Z 08001KT 27/11 A3022 RMK A01 T02700105  RH  036%=      5-min Rain = 0
KTA1 111723Z 01003KT 27/10 A3022 RMK A01 T02720104  RH  035%=      5-min Rain = 0
KTA1 111724Z 01003KT 27/10 A3022 RMK A01 T02690102  RH  035%=      5-min Rain = 0
KTA1 111725Z 06004KT 27/10 A3022 RMK A01 T02660103  RH  036%=      5-min Rain = 0
KTA1 111726Z 08003KT 27/10 A3022 RMK A01 T02650103  RH  036%=      5-min Rain = 0
KTA1 111727Z 08002KT 27/10 A3022 RMK A01 T02660104  RH  036%=      5-min Rain = 0
KTA1 111728Z 07002KT 27/10 A3022 RMK A01 T02670103  RH  036%=      5-min Rain = 0
KTA1 111729Z 13001KT 27/10 A3022 RMK A01 T02680104  RH  036%=      5-min Rain = 0
KTA1 111730Z 13001KT 27/10 A3022 RMK A01 T02680103  RH  036%=      5-min Rain = 0
KTA1 111731Z 13000KT 27/10 A3022 RMK A01 T02680103  RH  035%=      5-min Rain = 0
KTA1 111732Z 21001KT 27/10 A3022 RMK A01 T02680103  RH  036%=      5-min Rain = 0
KTA1 111733Z 18000KT 27/10 A3022 RMK A01 T02680104  RH  036%=      5-min Rain = 0
KTA1 111734Z 18000KT 27/11 A3022 RMK A01 T02700105  RH  036%=      5-min Rain = 0
KTA1 111735Z 27001KT 27/11 A3022 RMK A01 T02730106  RH  035%=      5-min Rain = 0
KTA1 111736Z 30001KT 28/11 A3022 RMK A01 T02750106  RH  035%=      5-min Rain = 0
KTA1 111737Z 31004KT 28/11 A3022 RMK A01 T02780108  RH  035%=      5-min Rain = 0
KTA1 111738Z 30004KT 28/11 A3022 RMK A01 T02780106  RH  034%=      5-min Rain = 0
KTA1 111739Z 26003KT 28/10 A3021 RMK A01 T02750104  RH  034%=      5-min Rain = 0
KTA1 111740Z 27003KT 27/10 A3021 RMK A01 T02720104  RH  035%=      5-min Rain = 0
KTA1 111741Z 33002KT 27/11 A3021 RMK A01 T02710105  RH  035%=      5-min Rain = 0
KTA1 111742Z 34004KT 27/11 A3021 RMK A01 T02710106  RH  036%=      5-min Rain = 0
KTA1 111743Z 32004KT 27/11 A3021 RMK A01 T02720106  RH  035%=      5-min Rain = 0
KTA1 111744Z 29004KT 27/11 A3021 RMK A01 T02720105  RH  035%=      5-min Rain = 0
KTA1 111745Z 28003KT 27/11 A3021 RMK A01 T02710105  RH  035%=      5-min Rain = 0
KTA1 111746Z 30001KT 27/11 A3021 RMK A01 T02700105  RH  035%=      5-min Rain = 0
KTA1 111747Z 01002KT 27/11 A3021 RMK A01 T02710106  RH  036%=      5-min Rain = 0
KTA1 111748Z 07005KT 27/11 A3021 RMK A01 T02740108  RH  035%=      5-min Rain = 0
KTA1 111749Z 11004KT 28/11 A3021 RMK A01 T02750106  RH  035%=      5-min Rain = 0
KTA1 111750Z 15003KT 28/11 A3021 RMK A01 T02750107  RH  035%=      5-min Rain = 0
KTA1 111751Z 12002KT 27/11 A3021 RMK A01 T02740107  RH  035%=      5-min Rain = 0
KTA1 111752Z 08002KT 28/11 A3021 RMK A01 T02760108  RH  035%=      5-min Rain = 0
KTA1 111753Z 04005KT 28/11 A3021 RMK A01 T02780108  RH  035%=      5-min Rain = 0
KTA1 111754Z 04005KT 28/11 A3021 RMK A01 T02790107  RH  034%=      5-min Rain = 0
KTA1 111755Z 05003KT 28/11 A3021 RMK A01 T02790106  RH  034%=      5-min Rain = 0
KTA1 111756Z 03006KT 28/11 A3021 RMK A01 T02780107  RH  034%=      5-min Rain = 0
KTA1 111757Z 05003KT 28/11 A3021 RMK A01 T02760105  RH  034%=      5-min Rain = 0
KTA1 111758Z 35002KT 28/11 A3021 RMK A01 T02750106  RH  035%=      5-min Rain = 0
KTA1 111759Z 01002KT 28/11 A3021 RMK A01 T02750105  RH  035%=      5-min Rain = 0
KTA1 111800Z 03003KT 28/11 A3021 RMK A01 T02760106  RH  034%=      5-min Rain = 0
KTA1 111801Z 07001KT 28/10 A3021 RMK A01 T02750104  RH  034%=      5-min Rain = 0
KTA1 111802Z 13000KT 28/10 A3021 RMK A01 T02750103  RH  034%=      5-min Rain = 0
KTA1 111803Z 04002KT 28/11 A3021 RMK A01 T02750105  RH  034%=      5-min Rain = 0
KTA1 111804Z 21001KT 28/10 A3021 RMK A01 T02750103  RH  034%=      5-min Rain = 0
KTA1 111805Z 20001KT 28/10 A3021 RMK A01 T02750104  RH  034%=      5-min Rain = 0
KTA1 111806Z 34002KT 28/11 A3021 RMK A01 T02770106  RH  034%=      5-min Rain = 0
KTA1 111807Z 36003KT 28/11 A3021 RMK A01 T02790105  RH  034%=      5-min Rain = 0
KTA1 111808Z 34000KT 28/10 A3021 RMK A01 T02760103  RH  034%=      5-min Rain = 0
KTA1 111809Z 18001KT 28/11 A3021 RMK A01 T02750105  RH  035%=      5-min Rain = 0
KTA1 111810Z 18002KT 28/11 A3021 RMK A01 T02750105  RH  034%=      5-min Rain = 0
KTA1 111811Z 17003KT 28/11 A3021 RMK A01 T02750105  RH  035%=      5-min Rain = 0
KTA1 111812Z 15003KT 27/11 A3021 RMK A01 T02740106  RH  035%=      5-min Rain = 0
KTA1 111813Z 12002KT 27/11 A302 RMK A01 T02740105  RH  035%=      5-min Rain = 0
KTA1 111814Z 08002KT 27/11 A302 RMK A01 T02730105  RH  035%=      5-min Rain = 0
KTA1 111815Z 22001KT 27/11 A302 RMK A01 T02730105  RH  035%=      5-min Rain = 0
KTA1 111816Z 20002KT 27/10 A302 RMK A01 T02730104  RH  035%=      5-min Rain = 0
KTA1 111817Z 26003KT 27/11 A302 RMK A01 T02740105  RH  035%=      5-min Rain = 0
KTA1 111818Z 25002KT 28/10 A302 RMK A01 T02750104  RH  034%=      5-min Rain = 0
KTA1 111819Z 23002KT 28/11 A302 RMK A01 T02750105  RH  035%=      5-min Rain = 0
KTA1 111820Z 23001KT 28/11 A302 RMK A01 T02760106  RH  035%=      5-min Rain = 0
KTA1 111821Z 12002KT 28/11 A302 RMK A01 T02780107  RH  034%=      5-min Rain = 0
KTA1 111822Z 12003KT 28/11 A302 RMK A01 T02810107  RH  034%=      5-min Rain = 0
KTA1 111823Z 12003KT 28/11 A302 RMK A01 T02840107  RH  033%=      5-min Rain = 0
KTA1 111824Z 16003KT 29/11 A302 RMK A01 T02850107  RH  033%=      5-min Rain = 0
KTA1 111825Z 15003KT 29/11 A302 RMK A01 T02870106  RH  032%=      5-min Rain = 0
KTA1 111826Z 14002KT 29/11 A302 RMK A01 T02880106  RH  032%=      5-min Rain = 0
KTA1 111827Z 31001KT 29/11 A302 RMK A01 T02880106  RH  032%=      5-min Rain = 0
KTA1 111828Z 20001KT 29/11 A302 RMK A01 T02870107  RH  033%=      5-min Rain = 0
KTA1 111829Z 09003KT 29/11 A302 RMK A01 T02890107  RH  032%=      5-min Rain = 0
KTA1 111830Z 09006KT 29/11 A302 RMK A01 T02900106  RH  032%=      5-min Rain = 0
KTA1 111831Z 10004KT 29/10 A302 RMK A01 T02860104  RH  032%=      5-min Rain = 0
KTA1 111832Z 07005KT 28/11 A302 RMK A01 T02820106  RH  033%=      5-min Rain = 0
KTA1 111833Z 08007KT 28/11 A302 RMK A01 T02830107  RH  033%=      5-min Rain = 0
KTA1 111834Z 08005KT 28/11 A302 RMK A01 T02830106  RH  033%=      5-min Rain = 0
KTA1 111835Z 10005KT 28/11 A302 RMK A01 T02840109  RH  034%=      5-min Rain = 0
KTA1 111836Z 06004KT 29/11 A302 RMK A01 T02870108  RH  033%=      5-min Rain = 0
KTA1 111837Z 02004KT 29/10 A3019 RMK A01 T02890103  RH  032%=      5-min Rain = 0
KTA1 111838Z 03002KT 29/10 A3019 RMK A01 T02880102  RH  031%=      5-min Rain = 0
KTA1 111839Z 02004KT 29/10 A3019 RMK A01 T02870104  RH  032%=      5-min Rain = 0
KTA1 111840Z 01007KT 29/10 A3019 RMK A01 T02900104  RH  032%=      5-min Rain = 0
KTA1 111841Z 04007KT 29/10 A3019 RMK A01 T02890103  RH  031%=      5-min Rain = 0
KTA1 111842Z 05005KT 29/10 A3019 RMK A01 T02880104  RH  032%=      5-min Rain = 0
KTA1 111843Z 02008KT 29/10 A3019 RMK A01 T02880103  RH  032%=      5-min Rain = 0
KTA1 111844Z 02008KT 29/10 A3019 RMK A01 T02900102  RH  031%=      5-min Rain = 0
KTA1 111845Z 01007KT 29/10 A3019 RMK A01 T02890101  RH  031%=      5-min Rain = 0
KTA1 111846Z 00005KT 29/10 A3019 RMK A01 T02860101  RH  032%=      5-min Rain = 0
KTA1 111847Z 33002KT 28/10 A3019 RMK A01 T02840101  RH  032%=      5-min Rain = 0
KTA1 111848Z 01005KT 28/10 A3019 RMK A01 T02840102  RH  032%=      5-min Rain = 0
KTA1 111849Z 02006KT 29/10 A3019 RMK A01 T02850102  RH  032%=      5-min Rain = 0
KTA1 111850Z 03005KT 29/10 A3019 RMK A01 T02870103  RH  032%=      5-min Rain = 0
KTA1 111851Z 04004KT 29/10 A3019 RMK A01 T02870104  RH  032%=      5-min Rain = 0
KTA1 111852Z 35004KT 29/10 A3019 RMK A01 T02860104  RH  032%=      5-min Rain = 0
KTA1 111853Z 35004KT 29/10 A3019 RMK A01 T02870104  RH  032%=      5-min Rain = 0
KTA1 111854Z 36003KT 29/11 A3019 RMK A01 T02890106  RH  032%=      5-min Rain = 0
KTA1 111855Z 02002KT 29/11 A3019 RMK A01 T02920105  RH  031%=      5-min Rain = 0
KTA1 111856Z 36003KT 29/11 A3019 RMK A01 T02920105  RH  031%=      5-min Rain = 0
KTA1 111857Z 33004KT 29/10 A3019 RMK A01 T02920104  RH  031%=      5-min Rain = 0
KTA1 111858Z 33004KT 29/10 A3019 RMK A01 T02910103  RH  031%=      5-min Rain = 0
KTA1 111859Z 01003KT 29/10 A3019 RMK A01 T02900103  RH  031%=      5-min Rain = 0
KTA1 111900Z 31003KT 29/10 A3019 RMK A01 T02890103  RH  031%=      5-min Rain = 0
KTA1 111901Z 30001KT 29/10 A3019 RMK A01 T02900103  RH  031%=      5-min Rain = 0
KTA1 111902Z 20001KT 29/10 A3018 RMK A01 T02910101  RH  031%=      5-min Rain = 0
KTA1 111903Z 22001KT 29/10 A3018 RMK A01 T02910102  RH  031%=      5-min Rain = 0
KTA1 111904Z 09004KT 29/10 A3018 RMK A01 T02900104  RH  031%=      5-min Rain = 0
KTA1 111905Z 10005KT 29/11 A3018 RMK A01 T02900105  RH  032%=      5-min Rain = 0
KTA1 111906Z 10005KT 29/10 A3018 RMK A01 T02900104  RH  031%=      5-min Rain = 0
KTA1 111907Z 11005KT 29/10 A3018 RMK A01 T02890104  RH  032%=      5-min Rain = 0
KTA1 111908Z 13006KT 29/11 A3018 RMK A01 T02880105  RH  032%=      5-min Rain = 0
KTA1 111909Z 13003KT 29/11 A3018 RMK A01 T02890105  RH  032%=      5-min Rain = 0
KTA1 111910Z 20001KT 29/10 A3018 RMK A01 T02900104  RH  032%=      5-min Rain = 0
KTA1 111911Z 24001KT 29/11 A3018 RMK A01 T02900105  RH  032%=      5-min Rain = 0
KTA1 111912Z 31002KT 29/11 A3018 RMK A01 T02910106  RH  032%=      5-min Rain = 0
KTA1 111913Z 35002KT 29/11 A3018 RMK A01 T02920107  RH  032%=      5-min Rain = 0
KTA1 111914Z 02002KT 29/11 A3018 RMK A01 T02940108  RH  032%=      5-min Rain = 0
KTA1 111915Z 06003KT 30/11 A3018 RMK A01 T02970106  RH  031%=      5-min Rain = 0
KTA1 111916Z 07005KT 30/11 A3018 RMK A01 T02980107  RH  031%=      5-min Rain = 0
KTA1 111917Z 04006KT 30/11 A3018 RMK A01 T02990108  RH  031%=      5-min Rain = 0
KTA1 111918Z 06009KT 30/11 A3018 RMK A01 T02990107  RH  030%=      5-min Rain = 0
KTA1 111919Z 08008KT 30/11 A3018 RMK A01 T02990107  RH  030%=      5-min Rain = 0
KTA1 111920Z 07006KT 30/11 A3018 RMK A01 T02950105  RH  031%=      5-min Rain = 0
KTA1 111921Z 06004KT 29/11 A3018 RMK A01 T02930105  RH  031%=      5-min Rain = 0
KTA1 111922Z 03002KT 29/10 A3018 RMK A01 T02900104  RH  031%=      5-min Rain = 0
KTA1 111923Z 10002KT 29/11 A3017 RMK A01 T02900107  RH  032%=      5-min Rain = 0
KTA1 111924Z 09005KT 29/11 A3017 RMK A01 T02920107  RH  032%=      5-min Rain = 0
KTA1 111925Z 08009KT 30/11 A3017 RMK A01 T02960108  RH  031%=      5-min Rain = 0
KTA1 111926Z 08008KT 30/11 A3017 RMK A01 T02970106  RH  031%=      5-min Rain = 0
KTA1 111927Z 09010KT 30/11 A3017 RMK A01 T02960107  RH  031%=      5-min Rain = 0
KTA1 111928Z 08008KT 29/11 A3017 RMK A01 T02940105  RH  031%=      5-min Rain = 0
KTA1 111929Z 10006KT 29/10 A3017 RMK A01 T02920104  RH  031%=      5-min Rain = 0
KTA1 111930Z 08006KT 29/11 A3017 RMK A01 T02920105  RH  031%=      5-min Rain = 0
KTA1 111931Z 06009KT 29/11 A3017 RMK A01 T02930106  RH  031%=      5-min Rain = 0
KTA1 111932Z 05008KT 29/11 A3017 RMK A01 T02940106  RH  031%=      5-min Rain = 0
KTA1 111933Z 05008KT 29/11 A3017 RMK A01 T02920105  RH  031%=      5-min Rain = 0
KTA1 111934Z 04007KT 29/11 A3017 RMK A01 T02920106  RH  031%=      5-min Rain = 0
KTA1 111935Z 05007KT 29/11 A3017 RMK A01 T02920106  RH  031%=      5-min Rain = 0
KTA1 111936Z 06005KT 29/11 A3017 RMK A01 T02940105  RH  031%=      5-min Rain = 0
KTA1 111937Z 06006KT 29/11 A3016 RMK A01 T02920105  RH  031%=      5-min Rain = 0
KTA1 111938Z 05006KT 29/10 A3016 RMK A01 T02910104  RH  031%=      5-min Rain = 0
KTA1 111939Z 07004KT 29/10 A3016 RMK A01 T02900103  RH  031%=      5-min Rain = 0
KTA1 111940Z 06004KT 29/10 A3016 RMK A01 T02900104  RH  031%=      5-min Rain = 0
KTA1 111941Z 06002KT 29/10 A3016 RMK A01 T02900104  RH  031%=      5-min Rain = 0
KTA1 111942Z 06005KT 29/10 A3016 RMK A01 T02910104  RH  031%=      5-min Rain = 0
KTA1 111943Z 04005KT 29/10 A3016 RMK A01 T02910104  RH  031%=      5-min Rain = 0
KTA1 111944Z 03005KT 29/10 A3016 RMK A01 T02900103  RH  031%=      5-min Rain = 0
KTA1 111945Z 06004KT 29/10 A3016 RMK A01 T02890103  RH  032%=      5-min Rain = 0
KTA1 111946Z 10005KT 29/11 A3016 RMK A01 T02880106  RH  032%=      5-min Rain = 0
KTA1 111947Z 11009KT 29/11 A3016 RMK A01 T02920107  RH  032%=      5-min Rain = 0
KTA1 111948Z 12008KT 29/11 A3016 RMK A01 T02930107  RH  032%=      5-min Rain = 0
KTA1 111949Z 12005KT 29/11 A3016 RMK A01 T02940108  RH  032%=      5-min Rain = 0
KTA1 111950Z 11006KT 30/11 A3016 RMK A01 T02950107  RH  031%=      5-min Rain = 0
KTA1 111951Z 10004KT 30/10 A3016 RMK A01 T02950104  RH  031%=      5-min Rain = 0
KTA1 111952Z 10004KT 29/10 A3016 RMK A01 T02920104  RH  031%=      5-min Rain = 0
KTA1 111953Z 14005KT 29/11 A3016 RMK A01 T02930107  RH  032%=      5-min Rain = 0
KTA1 111954Z 12007KT 30/11 A3016 RMK A01 T02960108  RH  031%=      5-min Rain = 0
KTA1 111955Z 13005KT 30/11 A3015 RMK A01 T02970107  RH  031%=      5-min Rain = 0
KTA1 111956Z 14006KT 30/11 A3015 RMK A01 T02960107  RH  031%=      5-min Rain = 0
KTA1 111957Z 14005KT 30/11 A3015 RMK A01 T02960106  RH  031%=      5-min Rain = 0
KTA1 111958Z 12006KT 30/11 A3015 RMK A01 T02950107  RH  031%=      5-min Rain = 0
KTA1 111959Z 09007KT 30/11 A3015 RMK A01 T02960107  RH  031%=      5-min Rain = 0
KTA1 112000Z 06007KT 30/11 A3015 RMK A01 T02990108  RH  031%=      5-min Rain = 0
KTA1 112001Z 06005KT 30/11 A3015 RMK A01 T02980106  RH  030%=      5-min Rain = 0
KTA1 112002Z 04005KT 30/11 A3015 RMK A01 T02950107  RH  031%=      5-min Rain = 0
KTA1 112003Z 06007KT 30/11 A3015 RMK A01 T02950107  RH  031%=      5-min Rain = 0
KTA1 112004Z 06005KT 29/11 A3015 RMK A01 T02940107  RH  031%=      5-min Rain = 0
KTA1 112005Z 04006KT 29/11 A3015 RMK A01 T02940107  RH  031%=      5-min Rain = 0
KTA1 112006Z 06002KT 29/11 A3015 RMK A01 T02940107  RH  031%=      5-min Rain = 0
KTA1 112007Z 04003KT 29/11 A3015 RMK A01 T02940107  RH  031%=      5-min Rain = 0
KTA1 112008Z 00007KT 30/11 A3015 RMK A01 T02970108  RH  031%=      5-min Rain = 0
KTA1 112009Z 01007KT 30/11 A3015 RMK A01 T02990107  RH  031%=      5-min Rain = 0
KTA1 112010Z 36006KT 30/11 A3015 RMK A01 T03020108  RH  030%=      5-min Rain = 0
KTA1 112011Z 36006KT 30/11 A3015 RMK A01 T03040108  RH  030%=      5-min Rain = 0
KTA1 112012Z 36005KT 30/11 A3015 RMK A01 T03040105  RH  029%=      5-min Rain = 0
KTA1 112013Z 36006KT 30/11 A3015 RMK A01 T03020105  RH  030%=      5-min Rain = 0
KTA1 112014Z 36004KT 30/11 A3015 RMK A01 T03010105  RH  030%=      5-min Rain = 0
KTA1 112015Z 34002KT 30/10 A3015 RMK A01 T02990102  RH  029%=      5-min Rain = 0
KTA1 112016Z 33002KT 30/10 A3015 RMK A01 T02990104  RH  030%=      5-min Rain = 0
KTA1 112017Z 36002KT 30/11 A3014 RMK A01 T02990105  RH  030%=      5-min Rain = 0
KTA1 112018Z 05002KT 30/11 A3014 RMK A01 T02990106  RH  030%=      5-min Rain = 0
KTA1 112019Z 09002KT 30/11 A3014 RMK A01 T03020107  RH  030%=      5-min Rain = 0
KTA1 112020Z 09004KT 30/11 A3014 RMK A01 T03040108  RH  030%=      5-min Rain = 0
KTA1 112021Z 09007KT 31/11 A3014 RMK A01 T03050108  RH  030%=      5-min Rain = 0
KTA1 112022Z 09008KT 31/11 A3014 RMK A01 T03050106  RH  029%=      5-min Rain = 0
KTA1 112023Z 09006KT 30/10 A3014 RMK A01 T03030104  RH  029%=      5-min Rain = 0
KTA1 112024Z 11007KT 30/11 A3014 RMK A01 T03010105  RH  030%=      5-min Rain = 0
KTA1 112025Z 10008KT 30/11 A3014 RMK A01 T03010105  RH  030%=      5-min Rain = 0
KTA1 112026Z 08008KT 30/10 A3014 RMK A01 T03020104  RH  029%=      5-min Rain = 0
KTA1 112027Z 09010KT 30/10 A3014 RMK A01 T03030104  RH  029%=      5-min Rain = 0
KTA1 112028Z 08009KT 30/10 A3014 RMK A01 T03020103  RH  029%=      5-min Rain = 0
KTA1 112029Z 09007KT 30/10 A3014 RMK A01 T03010104  RH  030%=      5-min Rain = 0
KTA1 112030Z 05005KT 30/10 A3014 RMK A01 T03020104  RH  029%=      5-min Rain = 0
KTA1 112031Z 11006KT 30/10 A3014 RMK A01 T03030104  RH  029%=      5-min Rain = 0
KTA1 112032Z 13007KT 30/10 A3013 RMK A01 T03040103  RH  029%=      5-min Rain = 0
KTA1 112033Z 12005KT 30/11 A3013 RMK A01 T03030105  RH  029%=      5-min Rain = 0
KTA1 112034Z 10008KT 30/10 A3013 RMK A01 T03040104  RH  029%=      5-min Rain = 0
KTA1 112035Z 10005KT 30/10 A3013 RMK A01 T03030103  RH  029%=      5-min Rain = 0
KTA1 112036Z 11006KT 30/10 A3013 RMK A01 T03000103  RH  029%=      5-min Rain = 0
KTA1 112037Z 08008KT 30/10 A3013 RMK A01 T03000103  RH  029%=      5-min Rain = 0
KTA1 112038Z 07011KT 30/10 A3013 RMK A01 T03020102  RH  029%=      5-min Rain = 0
KTA1 112039Z 07009KT 30/10 A3013 RMK A01 T03020102  RH  029%=      5-min Rain = 0
KTA1 112040Z 09010KT 30/10 A3013 RMK A01 T03010102  RH  029%=      5-min Rain = 0
KTA1 112041Z 10006KT 30/10 A3013 RMK A01 T03000102  RH  029%=      5-min Rain = 0
KTA1 112042Z 09008G14KT 30/10 A3013 RMK A01 T03010104  RH  030%=      5-min Rain = 0
KTA1 112043Z 08013KT 30/10 A3013 RMK A01 T03030101  RH  029%=      5-min Rain = 0
KTA1 112044Z 10012KT 30/10 A3013 RMK A01 T03030099  RH  028%=      5-min Rain = 0
KTA1 112045Z 10011KT 30/10 A3013 RMK A01 T03010098  RH  028%=      5-min Rain = 0
KTA1 112046Z 10011KT 30/10 A3013 RMK A01 T03000098  RH  029%=      5-min Rain = 0
KTA1 112047Z 10007KT 30/10 A3013 RMK A01 T02980097  RH  029%=      5-min Rain = 0
KTA1 112048Z 09008KT 30/10 A3013 RMK A01 T02970099  RH  029%=      5-min Rain = 0
KTA1 112049Z 09007KT 30/10 A3013 RMK A01 T02970098  RH  029%=      5-min Rain = 0
KTA1 112050Z 11009KT 30/10 A3013 RMK A01 T02970100  RH  029%=      5-min Rain = 0
KTA1 112051Z 11009KT 30/10 A3013 RMK A01 T03000100  RH  029%=      5-min Rain = 0
KTA1 112052Z 11010KT 30/10 A3013 RMK A01 T03010101  RH  029%=      5-min Rain = 0
KTA1 112053Z 11010KT 30/10 A3013 RMK A01 T03010102  RH  029%=      5-min Rain = 0
KTA1 112054Z 11009KT 30/10 A3013 RMK A01 T03010102  RH  029%=      5-min Rain = 0
KTA1 112055Z 11011KT 30/10 A3013 RMK A01 T03020102  RH  029%=      5-min Rain = 0
KTA1 112056Z 10009KT 30/10 A3013 RMK A01 T03030102  RH  029%=      5-min Rain = 0
KTA1 112057Z 10011KT 30/10 A3013 RMK A01 T03030103  RH  029%=      5-min Rain = 0
KTA1 112058Z 10009KT 30/10 A3013 RMK A01 T03030103  RH  029%=      5-min Rain = 0
KTA1 112059Z 07005KT 30/10 A3013 RMK A01 T03010101  RH  029%=      5-min Rain = 0
KTA1 112100Z 09004KT 30/10 A3013 RMK A01 T02990102  RH  029%=      5-min Rain = 0
KTA1 112101Z 14005KT 30/10 A3013 RMK A01 T02990103  RH  030%=      5-min Rain = 0
KTA1 112102Z 12003KT 30/10 A3013 RMK A01 T03000102  RH  029%=      5-min Rain = 0
KTA1 112103Z 10004KT 30/10 A3013 RMK A01 T02990102  RH  029%=      5-min Rain = 0
KTA1 112104Z 05004KT 30/10 A3013 RMK A01 T02990102  RH  030%=      5-min Rain = 0
KTA1 112105Z 08004KT 30/10 A3013 RMK A01 T02990101  RH  029%=      5-min Rain = 0
KTA1 112106Z 09005KT 30/10 A3013 RMK A01 T02990099  RH  029%=      5-min Rain = 0
KTA1 112107Z 08006KT 30/10 A3013 RMK A01 T03000099  RH  029%=      5-min Rain = 0
KTA1 112108Z 08009KT 30/10 A3013 RMK A01 T03010100  RH  029%=      5-min Rain = 0
KTA1 112109Z 09008KT 30/10 A3013 RMK A01 T03030100  RH  028%=      5-min Rain = 0
KTA1 112110Z 08007KT 30/10 A3013 RMK A01 T03000100  RH  029%=      5-min Rain = 0
KTA1 112111Z 09007KT 30/10 A3013 RMK A01 T02990100  RH  029%=      5-min Rain = 0
KTA1 112112Z 09007KT 30/10 A3013 RMK A01 T02980101  RH  029%=      5-min Rain = 0
KTA1 112113Z 11005KT 30/10 A3013 RMK A01 T02980101  RH  029%=      5-min Rain = 0
KTA1 112114Z 12006KT 30/10 A3012 RMK A01 T02980102  RH  030%=      5-min Rain = 0
KTA1 112115Z 11008KT 30/10 A3012 RMK A01 T02990103  RH  030%=      5-min Rain = 0
KTA1 112116Z 11009KT 30/10 A3012 RMK A01 T03020102  RH  029%=      5-min Rain = 0
KTA1 112117Z 11006KT 30/10 A3012 RMK A01 T03030101  RH  029%=      5-min Rain = 0
KTA1 112118Z 12007KT 30/10 A3012 RMK A01 T03000101  RH  029%=      5-min Rain = 0
KTA1 112119Z 12007KT 30/10 A3012 RMK A01 T03000101  RH  029%=      5-min Rain = 0
KTA1 112120Z 11005KT 30/10 A3012 RMK A01 T03010100  RH  029%=      5-min Rain = 0
KTA1 112121Z 12008KT 30/10 A3012 RMK A01 T03010101  RH  029%=      5-min Rain = 0
KTA1 112122Z 10009KT 30/10 A3012 RMK A01 T03020102  RH  029%=      5-min Rain = 0
KTA1 112123Z 09007KT 30/10 A3012 RMK A01 T03030102  RH  029%=      5-min Rain = 0
KTA1 112124Z 10006KT 30/10 A3012 RMK A01 T03020102  RH  029%=      5-min Rain = 0
KTA1 112125Z 10006KT 30/10 A3012 RMK A01 T03000101  RH  029%=      5-min Rain = 0
KTA1 112126Z 12006KT 30/10 A3012 RMK A01 T02980102  RH  030%=      5-min Rain = 0
KTA1 112127Z 11007KT 30/10 A3012 RMK A01 T02990101  RH  029%=      5-min Rain = 0
KTA1 112128Z 12004KT 30/10 A3012 RMK A01 T03000101  RH  029%=      5-min Rain = 0
KTA1 112129Z 10003KT 30/10 A3012 RMK A01 T02990101  RH  029%=      5-min Rain = 0
KTA1 112130Z 12004KT 30/10 A3011 RMK A01 T02980100  RH  029%=      5-min Rain = 0
KTA1 112131Z 13004KT 30/10 A3011 RMK A01 T02980101  RH  030%=      5-min Rain = 0
KTA1 112132Z 11004KT 30/10 A3011 RMK A01 T03000100  RH  029%=      5-min Rain = 0
KTA1 112133Z 12003KT 30/10 A3011 RMK A01 T03010099  RH  029%=      5-min Rain = 0
KTA1 112134Z 07004KT 30/10 A3011 RMK A01 T03010100  RH  029%=      5-min Rain = 0
KTA1 112135Z 12007KT 30/10 A3011 RMK A01 T03020101  RH  029%=      5-min Rain = 0
KTA1 112136Z 14006KT 31/10 A3011 RMK A01 T03050102  RH  029%=      5-min Rain = 0
KTA1 112137Z 10012G21KT 31/10 A3011 RMK A01 T03060103  RH  028%=      5-min Rain = 0
KTA1 112138Z 06007KT 31/11 A3011 RMK A01 T03080105  RH  029%=      5-min Rain = 0
KTA1 112139Z 09008KT 31/11 A3011 RMK A01 T03060106  RH  029%=      5-min Rain = 0
KTA1 112140Z 06007KT 30/11 A3011 RMK A01 T03040106  RH  029%=      5-min Rain = 0
KTA1 112141Z 06003KT 30/11 A3011 RMK A01 T03020106  RH  030%=      5-min Rain = 0
KTA1 112142Z 05009KT 30/11 A3011 RMK A01 T03020106  RH  030%=      5-min Rain = 0
KTA1 112143Z 05009KT 30/11 A3011 RMK A01 T03030107  RH  030%=      5-min Rain = 0
KTA1 112144Z 06009KT 30/11 A3011 RMK A01 T03040107  RH  029%=      5-min Rain = 0
KTA1 112145Z 07006KT 31/11 A3011 RMK A01 T03050107  RH  030%=      5-min Rain = 0
KTA1 112146Z 07005KT 31/11 A3011 RMK A01 T03050106  RH  029%=      5-min Rain = 0
KTA1 112147Z 08005KT 30/11 A3011 RMK A01 T03040107  RH  030%=      5-min Rain = 0
KTA1 112148Z 07005KT 30/11 A3011 RMK A01 T03030106  RH  030%=      5-min Rain = 0
KTA1 112149Z 05007KT 30/11 A3011 RMK A01 T03010106  RH  030%=      5-min Rain = 0
KTA1 112150Z 04007KT 30/11 A3011 RMK A01 T03010106  RH  030%=      5-min Rain = 0
KTA1 112151Z 02007KT 30/11 A3011 RMK A01 T03010105  RH  030%=      5-min Rain = 0
KTA1 112152Z 02007KT 30/11 A3011 RMK A01 T03010107  RH  030%=      5-min Rain = 0
KTA1 112153Z 03005KT 30/11 A3011 RMK A01 T03020106  RH  030%=      5-min Rain = 0
KTA1 112154Z 01005KT 30/11 A3011 RMK A01 T03010105  RH  030%=      5-min Rain = 0
KTA1 112155Z 01004KT 30/11 A3011 RMK A01 T02990105  RH  030%=      5-min Rain = 0
KTA1 112156Z 03007KT 30/11 A3011 RMK A01 T03000106  RH  030%=      5-min Rain = 0
KTA1 112157Z 04007KT 30/11 A3011 RMK A01 T03020107  RH  030%=      5-min Rain = 0
KTA1 112158Z 04005KT 31/11 A3011 RMK A01 T03050107  RH  029%=      5-min Rain = 0
KTA1 112159Z 05005KT 31/11 A3011 RMK A01 T03050106  RH  029%=      5-min Rain = 0
KTA1 112200Z 08005KT 30/11 A3011 RMK A01 T03040107  RH  029%=      5-min Rain = 0
KTA1 112201Z 10004KT 31/11 A3011 RMK A01 T03050107  RH  029%=      5-min Rain = 0
KTA1 112202Z 10003KT 31/11 A3011 RMK A01 T03060107  RH  029%=      5-min Rain = 0
KTA1 112203Z 11004KT 31/11 A3011 RMK A01 T03070107  RH  029%=      5-min Rain = 0
KTA1 112204Z 13004KT 31/11 A3011 RMK A01 T03070107  RH  029%=      5-min Rain = 0
KTA1 112205Z 09006KT 31/11 A3011 RMK A01 T03060107  RH  029%=      5-min Rain = 0
KTA1 112206Z 09005KT 31/11 A3011 RMK A01 T03060107  RH  029%=      5-min Rain = 0
KTA1 112207Z 10003KT 31/11 A3011 RMK A01 T03050106  RH  029%=      5-min Rain = 0
KTA1 112208Z 11005KT 30/11 A3011 RMK A01 T03030105  RH  030%=      5-min Rain = 0
KTA1 112209Z 15002KT 30/11 A3011 RMK A01 T03020106  RH  030%=      5-min Rain = 0
KTA1 112210Z 14004KT 30/11 A3011 RMK A01 T03030105  RH  029%=      5-min Rain = 0
KTA1 112211Z 13006KT 30/11 A301 RMK A01 T03030106  RH  030%=      5-min Rain = 0
KTA1 112212Z 12007KT 30/11 A301 RMK A01 T03030106  RH  030%=      5-min Rain = 0
KTA1 112213Z 13006KT 30/11 A301 RMK A01 T03030107  RH  030%=      5-min Rain = 0
KTA1 112214Z 14005KT 31/11 A301 RMK A01 T03050106  RH  029%=      5-min Rain = 0
KTA1 112215Z 15006KT 31/11 A301 RMK A01 T03060107  RH  029%=      5-min Rain = 0
KTA1 112216Z 15005KT 31/11 A301 RMK A01 T03060107  RH  029%=      5-min Rain = 0
KTA1 112217Z 15005KT 31/11 A301 RMK A01 T03060107  RH  029%=      5-min Rain = 0
KTA1 112218Z 17004KT 31/11 A301 RMK A01 T03050106  RH  029%=      5-min Rain = 0
KTA1 112219Z 19003KT 30/11 A301 RMK A01 T03030106  RH  030%=      5-min Rain = 0
KTA1 112220Z 20003KT 30/11 A301 RMK A01 T03020106  RH  030%=      5-min Rain = 0
KTA1 112221Z 23002KT 30/11 A301 RMK A01 T03020105  RH  029%=      5-min Rain = 0
KTA1 112222Z 27001KT 30/11 A301 RMK A01 T03020105  RH  030%=      5-min Rain = 0
KTA1 112223Z 30001KT 30/11 A301 RMK A01 T03010105  RH  030%=      5-min Rain = 0
KTA1 112224Z 33001KT 30/11 A301 RMK A01 T03030105  RH  029%=      5-min Rain = 0
KTA1 112225Z 03002KT 31/11 A301 RMK A01 T03050106  RH  029%=      5-min Rain = 0
KTA1 112226Z 02001KT 31/11 A301 RMK A01 T03070108  RH  029%=      5-min Rain = 0
KTA1 112227Z 09003KT 31/11 A301 RMK A01 T03080107  RH  029%=      5-min Rain = 0
KTA1 112228Z 10003KT 31/11 A301 RMK A01 T03080107  RH  029%=      5-min Rain = 0
KTA1 112229Z 06005KT 31/11 A301 RMK A01 T03080107  RH  029%=      5-min Rain = 0
KTA1 112230Z 07007KT 31/11 A301 RMK A01 T03100106  RH  029%=      5-min Rain = 0
KTA1 112231Z 07006KT 31/11 A301 RMK A01 T03090105  RH  028%=      5-min Rain = 0
KTA1 112232Z 08005KT 31/11 A301 RMK A01 T03080105  RH  029%=      5-min Rain = 0
KTA1 112233Z 07002KT 31/11 A301 RMK A01 T03060105  RH  029%=      5-min Rain = 0
KTA1 112234Z 09002KT 30/11 A301 RMK A01 T03040105  RH  029%=      5-min Rain = 0
KTA1 112235Z 11003KT 30/10 A301 RMK A01 T03030104  RH  029%=      5-min Rain = 0
KTA1 112236Z 12003KT 30/11 A301 RMK A01 T03030105  RH  029%=      5-min Rain = 0
KTA1 112237Z 10002KT 30/11 A301 RMK A01 T03040105  RH  029%=      5-min Rain = 0
KTA1 112238Z 13004KT 30/11 A301 RMK A01 T03040105  RH  029%=      5-min Rain = 0
KTA1 112239Z 16003KT 31/11 A301 RMK A01 T03050107  RH  029%=      5-min Rain = 0
KTA1 112240Z 10004KT 31/11 A301 RMK A01 T03070106  RH  029%=      5-min Rain = 0
KTA1 112241Z 12003KT 31/11 A301 RMK A01 T03070105  RH  029%=      5-min Rain = 0
KTA1 112242Z 14002KT 31/11 A301 RMK A01 T03060106  RH  029%=      5-min Rain = 0
KTA1 112243Z 13000KT 31/10 A301 RMK A01 T03050104  RH  029%=      5-min Rain = 0
KTA1 112244Z 06001KT 31/11 A301 RMK A01 T03050105  RH  029%=      5-min Rain = 0
KTA1 112245Z 04004KT 31/11 A301 RMK A01 T03060106  RH  029%=      5-min Rain = 0
KTA1 112246Z 04004KT 31/11 A301 RMK A01 T03060106  RH  029%=      5-min Rain = 0
KTA1 112247Z 02003KT 31/11 A301 RMK A01 T03050106  RH  029%=      5-min Rain = 0
KTA1 112248Z 03001KT 30/11 A301 RMK A01 T03040106  RH  029%=      5-min Rain = 0
KTA1 112249Z 09001KT 31/11 A301 RMK A01 T03050107  RH  029%=      5-min Rain = 0
KTA1 112250Z 12002KT 31/11 A301 RMK A01 T03060106  RH  029%=      5-min Rain = 0
KTA1 112251Z 16000KT 31/11 A301 RMK A01 T03050106  RH  029%=      5-min Rain = 0
KTA1 112252Z 23000KT 31/11 A301 RMK A01 T03050106  RH  029%=      5-min Rain = 0
KTA1 112253Z 32001KT 31/11 A301 RMK A01 T03080107  RH  029%=      5-min Rain = 0
KTA1 112254Z 33003KT 31/11 A301 RMK A01 T03100106  RH  028%=      5-min Rain = 0
KTA1 112255Z 34002KT 31/10 A301 RMK A01 T03100104  RH  028%=      5-min Rain = 0
KTA1 112256Z 36001KT 31/10 A301 RMK A01 T03090104  RH  028%=      5-min Rain = 0
KTA1 112257Z 35001KT 31/10 A301 RMK A01 T03100103  RH  028%=      5-min Rain = 0
KTA1 112258Z 28001KT 31/10 A301 RMK A01 T03100104  RH  028%=      5-min Rain = 0
KTA1 112259Z 30002KT 31/11 A301 RMK A01 T03110105  RH  028%=      5-min Rain = 0
KTA1 112300Z 29002KT 31/10 A301 RMK A01 T03110104  RH  028%=      5-min Rain = 0
KTA1 112301Z 31002KT 31/10 A301 RMK A01 T03110104  RH  028%=      5-min Rain = 0
KTA1 112302Z 04003KT 31/11 A301 RMK A01 T03110105  RH  028%=      5-min Rain = 0
KTA1 112303Z 06002KT 31/11 A301 RMK A01 T03100106  RH  028%=      5-min Rain = 0
KTA1 112304Z 09001KT 31/11 A301 RMK A01 T03100105  RH  028%=      5-min Rain = 0
KTA1 112305Z 02001KT 31/11 A301 RMK A01 T03090105  RH  028%=      5-min Rain = 0
KTA1 112306Z 26001KT 31/11 A301 RMK A01 T03100105  RH  028%=      5-min Rain = 0
KTA1 112307Z 19002KT 31/11 A301 RMK A01 T03110105  RH  028%=      5-min Rain = 0
KTA1 112308Z 19002KT 31/11 A301 RMK A01 T03110106  RH  028%=      5-min Rain = 0
KTA1 112309Z 15001KT 31/11 A301 RMK A01 T03110106  RH  028%=      5-min Rain = 0
KTA1 112310Z 17001KT 31/11 A301 RMK A01 T03110106  RH  028%=      5-min Rain = 0
KTA1 112311Z 17000KT 31/11 A301 RMK A01 T03110107  RH  028%=      5-min Rain = 0
KTA1 112312Z 17000KT 31/11 A301 RMK A01 T03120107  RH  028%=      5-min Rain = 0
KTA1 112313Z 12000KT 31/11 A301 RMK A01 T03140107  RH  028%=      5-min Rain = 0
KTA1 112314Z 35000KT 31/11 A301 RMK A01 T03130107  RH  028%=      5-min Rain = 0
KTA1 112315Z 35002KT 32/11 A301 RMK A01 T03150107  RH  028%=      5-min Rain = 0
KTA1 112316Z 01003KT 31/11 A301 RMK A01 T03140107  RH  028%=      5-min Rain = 0
KTA1 112317Z 02003KT 31/10 A301 RMK A01 T03120103  RH  028%=      5-min Rain = 0
KTA1 112318Z 03005KT 31/10 A301 RMK A01 T03100104  RH  028%=      5-min Rain = 0
KTA1 112319Z 03003KT 31/10 A301 RMK A01 T03080103  RH  028%=      5-min Rain = 0
KTA1 112320Z 02003KT 31/10 A301 RMK A01 T03070103  RH  028%=      5-min Rain = 0
KTA1 112321Z 01002KT 31/10 A3009 RMK A01 T03060102  RH  028%=      5-min Rain = 0
KTA1 112322Z 04006KT 30/10 A301 RMK A01 T03040102  RH  029%=      5-min Rain = 0
KTA1 112323Z 06005KT 30/10 A301 RMK A01 T03040102  RH  029%=      5-min Rain = 0
KTA1 112324Z 07004KT 30/10 A301 RMK A01 T03030102  RH  029%=      5-min Rain = 0
KTA1 112325Z 07002KT 30/10 A301 RMK A01 T03030102  RH  029%=      5-min Rain = 0
KTA1 112326Z 06003KT 30/10 A301 RMK A01 T03020102  RH  029%=      5-min Rain = 0
KTA1 112327Z 05003KT 30/10 A3009 RMK A01 T03020103  RH  029%=      5-min Rain = 0
KTA1 112328Z 02005KT 30/10 A3009 RMK A01 T03030104  RH  029%=      5-min Rain = 0
KTA1 112329Z 00005KT 31/10 A3009 RMK A01 T03050104  RH  029%=      5-min Rain = 0
KTA1 112330Z 01004KT 31/10 A3009 RMK A01 T03050104  RH  029%=      5-min Rain = 0
KTA1 112331Z 01004KT 30/10 A3009 RMK A01 T03040104  RH  029%=      5-min Rain = 0
KTA1 112332Z 01003KT 31/10 A3009 RMK A01 T03050104  RH  029%=      5-min Rain = 0
KTA1 112333Z 03005KT 31/10 A3009 RMK A01 T03050104  RH  029%=      5-min Rain = 0
KTA1 112334Z 04006KT 31/10 A3009 RMK A01 T03060104  RH  029%=      5-min Rain = 0
KTA1 112335Z 04006KT 31/10 A3009 RMK A01 T03060103  RH  029%=      5-min Rain = 0
KTA1 112336Z 04005KT 31/10 A3009 RMK A01 T03050104  RH  029%=      5-min Rain = 0
KTA1 112337Z 05005KT 31/10 A3009 RMK A01 T03050103  RH  029%=      5-min Rain = 0
KTA1 112338Z 05004KT 30/10 A3009 RMK A01 T03030102  RH  029%=      5-min Rain = 0
KTA1 112339Z 06004KT 30/10 A3009 RMK A01 T03010103  RH  029%=      5-min Rain = 0
KTA1 112340Z 07004KT 30/10 A3009 RMK A01 T03010102  RH  029%=      5-min Rain = 0
KTA1 112341Z 06004KT 30/10 A3009 RMK A01 T03010102  RH  029%=      5-min Rain = 0
KTA1 112342Z 06004KT 30/10 A3009 RMK A01 T03010103  RH  029%=      5-min Rain = 0
KTA1 112343Z 08003KT 30/10 A3009 RMK A01 T03000102  RH  029%=      5-min Rain = 0
KTA1 112344Z 04004KT 30/10 A3009 RMK A01 T03000103  RH  029%=      5-min Rain = 0
KTA1 112345Z 06004KT 30/10 A3009 RMK A01 T03000103  RH  030%=      5-min Rain = 0
KTA1 112346Z 04004KT 30/10 A3009 RMK A01 T03010103  RH  029%=      5-min Rain = 0
KTA1 112347Z 06003KT 30/10 A3009 RMK A01 T03020103  RH  029%=      5-min Rain = 0
KTA1 112348Z 07002KT 30/10 A3009 RMK A01 T03010103  RH  029%=      5-min Rain = 0
KTA1 112349Z 06002KT 30/10 A3009 RMK A01 T03010103  RH  029%=      5-min Rain = 0
KTA1 112350Z 07002KT 30/10 A3009 RMK A01 T03010103  RH  029%=      5-min Rain = 0
KTA1 112351Z 07001KT 30/10 A3009 RMK A01 T03000102  RH  029%=      5-min Rain = 0
KTA1 112352Z 07000KT 30/10 A3009 RMK A01 T03000103  RH  029%=      5-min Rain = 0
KTA1 112353Z 00000KT 30/10 A3009 RMK A01 T03010103  RH  029%=      5-min Rain = 0
KTA1 112354Z 08000KT 30/10 A3009 RMK A01 T03020103  RH  029%=      5-min Rain = 0
KTA1 112355Z 09002KT 30/10 A3009 RMK A01 T03030103  RH  029%=      5-min Rain = 0
KTA1 112356Z 10001KT 30/10 A3009 RMK A01 T03030104  RH  029%=      5-min Rain = 0
KTA1 112357Z 19001KT 30/10 A3009 RMK A01 T03030104  RH  029%=      5-min Rain = 0
KTA1 112358Z 21001KT 30/11 A3009 RMK A01 T03040105  RH  029%=      5-min Rain = 0
KTA1 112359Z 27002KT 30/11 A3009 RMK A01 T03040105  RH  029%=      5-min Rain = 0
KTA1 120000Z 33002KT 31/11 A3009 RMK A01 T03050105  RH  029%=      5-min Rain = 0
KTA1 120001Z 05001KT 31/11 A3009 RMK A01 T03050105  RH  029%=      5-min Rain = 0
KTA1 120002Z 09000KT 31/11 A3009 RMK A01 T03050105  RH  029%=      5-min Rain = 0
KTA1 120003Z 09000KT 31/11 A3009 RMK A01 T03050105  RH  029%=      5-min Rain = 0
KTA1 120004Z 06002KT 31/10 A3009 RMK A01 T03060104  RH  029%=      5-min Rain = 0
KTA1 120005Z 06002KT 31/10 A3009 RMK A01 T03050104  RH  029%=      5-min Rain = 0
KTA1 120006Z 06002KT 30/10 A3009 RMK A01 T03040104  RH  029%=      5-min Rain = 0
KTA1 120007Z 06002KT 30/10 A3009 RMK A01 T03040104  RH  029%=      5-min Rain = 0
KTA1 120008Z 06003KT 30/11 A3009 RMK A01 T03020105  RH  030%=      5-min Rain = 0
KTA1 120009Z 10003KT 30/11 A3009 RMK A01 T03020107  RH  030%=      5-min Rain = 0
KTA1 120010Z 13003KT 30/11 A3009 RMK A01 T03010105  RH  030%=      5-min Rain = 0
KTA1 120011Z 13002KT 30/10 A3009 RMK A01 T03000104  RH  030%=      5-min Rain = 0
KTA1 120012Z 11002KT 30/10 A3009 RMK A01 T03000104  RH  030%=      5-min Rain = 0
KTA1 120013Z 09003KT 30/11 A3009 RMK A01 T02990105  RH  030%=      5-min Rain = 0
KTA1 120014Z 08003KT 30/10 A3009 RMK A01 T02990104  RH  030%=      5-min Rain = 0
KTA1 120015Z 09003KT 30/10 A3009 RMK A01 T02980103  RH  030%=      5-min Rain = 0
KTA1 120016Z 08004KT 30/11 A3009 RMK A01 T02980105  RH  030%=      5-min Rain = 0
KTA1 120017Z 07004KT 30/10 A3009 RMK A01 T02980104  RH  030%=      5-min Rain = 0
KTA1 120018Z 06004KT 30/10 A3009 RMK A01 T02970103  RH  030%=      5-min Rain = 0
KTA1 120019Z 06003KT 30/10 A3009 RMK A01 T02970103  RH  030%=      5-min Rain = 0
KTA1 120020Z 06002KT 30/10 A3009 RMK A01 T02970103  RH  030%=      5-min Rain = 0
KTA1 120021Z 05003KT 30/10 A3009 RMK A01 T02960102  RH  030%=      5-min Rain = 0
KTA1 120022Z 08003KT 30/10 A3009 RMK A01 T02960103  RH  030%=      5-min Rain = 0
KTA1 120023Z 09002KT 30/10 A3009 RMK A01 T02960102  RH  030%=      5-min Rain = 0
KTA1 120024Z 09002KT 30/10 A3009 RMK A01 T02950102  RH  030%=      5-min Rain = 0
KTA1 120025Z 09003KT 30/10 A3009 RMK A01 T02950103  RH  030%=      5-min Rain = 0
KTA1 120026Z 09005KT 30/10 A3009 RMK A01 T02950104  RH  031%=      5-min Rain = 0
KTA1 120027Z 11004KT 30/10 A3009 RMK A01 T02950104  RH  031%=      5-min Rain = 0
KTA1 120028Z 11004KT 29/10 A3009 RMK A01 T02940104  RH  031%=      5-min Rain = 0
KTA1 120029Z 09004KT 29/10 A3009 RMK A01 T02940104  RH  031%=      5-min Rain = 0
KTA1 120030Z 08004KT 29/11 A3009 RMK A01 T02940106  RH  031%=      5-min Rain = 0
KTA1 120031Z 07004KT 29/11 A3009 RMK A01 T02930106  RH  031%=      5-min Rain = 0
KTA1 120032Z 08003KT 29/11 A3009 RMK A01 T02930106  RH  031%=      5-min Rain = 0
KTA1 120033Z 08002KT 29/11 A3009 RMK A01 T02930106  RH  031%=      5-min Rain = 0
KTA1 120034Z 09003KT 29/11 A3009 RMK A01 T02920105  RH  031%=      5-min Rain = 0
KTA1 120035Z 10004KT 29/11 A3009 RMK A01 T02920105  RH  031%=      5-min Rain = 0
KTA1 120036Z 08003KT 29/11 A3009 RMK A01 T02910106  RH  032%=      5-min Rain = 0
KTA1 120037Z 09003KT 29/11 A3009 RMK A01 T02910106  RH  032%=      5-min Rain = 0
KTA1 120038Z 09004KT 29/11 A3009 RMK A01 T02910107  RH  032%=      5-min Rain = 0
KTA1 120039Z 09003KT 29/11 A3009 RMK A01 T02900105  RH  032%=      5-min Rain = 0
KTA1 120040Z 08003KT 29/10 A3009 RMK A01 T02900104  RH  032%=      5-min Rain = 0
KTA1 120041Z 08003KT 29/10 A3009 RMK A01 T02890104  RH  032%=      5-min Rain = 0
KTA1 120042Z 09003KT 29/10 A3009 RMK A01 T02890104  RH  032%=      5-min Rain = 0
KTA1 120043Z 10002KT 29/10 A3009 RMK A01 T02880104  RH  032%=      5-min Rain = 0
KTA1 120044Z 11002KT 29/11 A3009 RMK A01 T02880105  RH  032%=      5-min Rain = 0
KTA1 120045Z 12003KT 29/11 A3009 RMK A01 T02880106  RH  032%=      5-min Rain = 0
KTA1 120046Z 13002KT 29/11 A3009 RMK A01 T02870106  RH  033%=      5-min Rain = 0
KTA1 120047Z 13002KT 29/11 A3009 RMK A01 T02860107  RH  033%=      5-min Rain = 0
KTA1 120048Z 13002KT 29/11 A3009 RMK A01 T02860107  RH  033%=      5-min Rain = 0
KTA1 120049Z 13002KT 29/11 A3009 RMK A01 T02850107  RH  033%=      5-min Rain = 0
KTA1 120050Z 13002KT 28/11 A3009 RMK A01 T02840107  RH  033%=      5-min Rain = 0
KTA1 120051Z 13002KT 28/11 A3009 RMK A01 T02840108  RH  033%=      5-min Rain = 0
KTA1 120052Z 13002KT 28/11 A3009 RMK A01 T02830108  RH  034%=      5-min Rain = 0
KTA1 120053Z 13001KT 28/11 A3009 RMK A01 T02820108  RH  034%=      5-min Rain = 0
KTA1 120054Z 13001KT 28/11 A3009 RMK A01 T02820108  RH  034%=      5-min Rain = 0
KTA1 120055Z 14002KT 28/11 A3009 RMK A01 T02820108  RH  034%=      5-min Rain = 0
KTA1 120056Z 14002KT 28/11 A3009 RMK A01 T02810108  RH  034%=      5-min Rain = 0
KTA1 120057Z 14003KT 28/11 A3009 RMK A01 T02810108  RH  034%=      5-min Rain = 0
KTA1 120058Z 14003KT 28/11 A3009 RMK A01 T02800108  RH  034%=      5-min Rain = 0
KTA1 120059Z 14002KT 28/11 A3009 RMK A01 T02790107  RH  034%=      5-min Rain = 0
KTA1 120100Z 14002KT 28/11 A3009 RMK A01 T02790108  RH  034%=      5-min Rain = 0
KTA1 120101Z 14002KT 28/11 A3009 RMK A01 T02780108  RH  035%=      5-min Rain = 0
KTA1 120102Z 14003KT 28/11 A3009 RMK A01 T02780108  RH  035%=      5-min Rain = 0
KTA1 120103Z 14003KT 28/11 A3009 RMK A01 T02770108  RH  035%=      5-min Rain = 0
KTA1 120104Z 14003KT 28/11 A3009 RMK A01 T02770108  RH  035%=      5-min Rain = 0
KTA1 120105Z 14003KT 28/11 A3009 RMK A01 T02760108  RH  035%=      5-min Rain = 0
KTA1 120106Z 14003KT 28/11 A3009 RMK A01 T02750108  RH  035%=      5-min Rain = 0
KTA1 120107Z 14003KT 27/11 A3009 RMK A01 T02740108  RH  035%=      5-min Rain = 0
KTA1 120108Z 14002KT 27/11 A3009 RMK A01 T02730108  RH  036%=      5-min Rain = 0
KTA1 120109Z 14002KT 27/11 A3009 RMK A01 T02720108  RH  036%=      5-min Rain = 0
KTA1 120110Z 14002KT 27/11 A3009 RMK A01 T02710108  RH  036%=      5-min Rain = 0
KTA1 120111Z 14002KT 27/11 A3009 RMK A01 T02710107  RH  036%=      5-min Rain = 0
KTA1 120112Z 14002KT 27/11 A3009 RMK A01 T02700107  RH  036%=      5-min Rain = 0
KTA1 120113Z 14002KT 27/11 A3009 RMK A01 T02700107  RH  036%=      5-min Rain = 0
KTA1 120114Z 14002KT 27/11 A3009 RMK A01 T02700107  RH  036%=      5-min Rain = 0
KTA1 120115Z 14002KT 27/11 A3009 RMK A01 T02700107  RH  036%=      5-min Rain = 0
KTA1 120116Z 14003KT 27/11 A3009 RMK A01 T02700107  RH  036%=      5-min Rain = 0
KTA1 120117Z 15003KT 27/11 A3008 RMK A01 T02700106  RH  036%=      5-min Rain = 0
KTA1 120118Z 15003KT 27/11 A3008 RMK A01 T02700106  RH  036%=      5-min Rain = 0
KTA1 120119Z 15003KT 27/11 A3008 RMK A01 T02690106  RH  036%=      5-min Rain = 0
KTA1 120120Z 15003KT 27/11 A3008 RMK A01 T02690105  RH  036%=      5-min Rain = 0
KTA1 120121Z 15003KT 27/11 A3008 RMK A01 T02690105  RH  036%=      5-min Rain = 0
KTA1 120122Z 15003KT 27/11 A3008 RMK A01 T02690106  RH  036%=      5-min Rain = 0
KTA1 120123Z 15003KT 27/11 A3008 RMK A01 T02680105  RH  036%=      5-min Rain = 0
KTA1 120124Z 15003KT 27/11 A3008 RMK A01 T02670105  RH  036%=      5-min Rain = 0
KTA1 120125Z 15003KT 27/11 A3008 RMK A01 T02670106  RH  036%=      5-min Rain = 0
KTA1 120126Z 15002KT 27/11 A3008 RMK A01 T02660106  RH  036%=      5-min Rain = 0
KTA1 120127Z 15003KT 27/11 A3008 RMK A01 T02670106  RH  036%=      5-min Rain = 0
KTA1 120128Z 15003KT 27/11 A3008 RMK A01 T02660106  RH  036%=      5-min Rain = 0
KTA1 120129Z 15003KT 27/11 A3008 RMK A01 T02660106  RH  037%=      5-min Rain = 0
KTA1 120130Z 15003KT 27/11 A3008 RMK A01 T02660106  RH  037%=      5-min Rain = 0
KTA1 120131Z 15003KT 27/11 A3008 RMK A01 T02650106  RH  037%=      5-min Rain = 0
KTA1 120132Z 15003KT 26/11 A3008 RMK A01 T02640106  RH  037%=      5-min Rain = 0
KTA1 120133Z 15003KT 26/11 A3008 RMK A01 T02640106  RH  037%=      5-min Rain = 0
KTA1 120134Z 15003KT 26/11 A3008 RMK A01 T02630106  RH  037%=      5-min Rain = 0
KTA1 120135Z 15003KT 26/11 A3008 RMK A01 T02620106  RH  037%=      5-min Rain = 0
KTA1 120136Z 15003KT 26/11 A3009 RMK A01 T02620106  RH  037%=      5-min Rain = 0
KTA1 120137Z 15003KT 26/11 A3009 RMK A01 T02620106  RH  037%=      5-min Rain = 0
KTA1 120138Z 15003KT 26/11 A3009 RMK A01 T02610106  RH  038%=      5-min Rain = 0
KTA1 120139Z 15003KT 26/11 A3009 RMK A01 T02610105  RH  038%=      5-min Rain = 0
KTA1 120140Z 15003KT 26/11 A3009 RMK A01 T02600106  RH  038%=      5-min Rain = 0
KTA1 120141Z 15003KT 26/11 A3009 RMK A01 T02600106  RH  038%=      5-min Rain = 0
KTA1 120142Z 15003KT 26/11 A3009 RMK A01 T02600106  RH  038%=      5-min Rain = 0
KTA1 120143Z 15003KT 26/11 A3009 RMK A01 T02600106  RH  038%=      5-min Rain = 0
KTA1 120144Z 14003KT 26/11 A3009 RMK A01 T02600106  RH  038%=      5-min Rain = 0
KTA1 120145Z 14003KT 26/11 A3009 RMK A01 T02590106  RH  038%=      5-min Rain = 0
KTA1 120146Z 14003KT 26/11 A3009 RMK A01 T02590106  RH  038%=      5-min Rain = 0
KTA1 120147Z 14003KT 26/11 A3009 RMK A01 T02590105  RH  038%=      5-min Rain = 0
KTA1 120148Z 14003KT 26/11 A3009 RMK A01 T02590105  RH  038%=      5-min Rain = 0
KTA1 120149Z 14003KT 26/11 A3009 RMK A01 T02590105  RH  038%=      5-min Rain = 0
KTA1 120150Z 14003KT 26/11 A3009 RMK A01 T02590105  RH  038%=      5-min Rain = 0
KTA1 120151Z 14003KT 26/11 A3009 RMK A01 T02590105  RH  038%=      5-min Rain = 0
KTA1 120152Z 14003KT 26/11 A3009 RMK A01 T02580105  RH  038%=      5-min Rain = 0
KTA1 120153Z 14003KT 26/10 A3009 RMK A01 T02580104  RH  038%=      5-min Rain = 0
KTA1 120154Z 14003KT 26/10 A3009 RMK A01 T02570104  RH  038%=      5-min Rain = 0
KTA1 120155Z 14003KT 26/10 A3009 RMK A01 T02570104  RH  038%=      5-min Rain = 0
KTA1 120156Z 14003KT 26/11 A3009 RMK A01 T02560105  RH  039%=      5-min Rain = 0
KTA1 120157Z 14003KT 26/11 A3009 RMK A01 T02560105  RH  039%=      5-min Rain = 0
KTA1 120158Z 14003KT 26/11 A3009 RMK A01 T02550105  RH  039%=      5-min Rain = 0
KTA1 120159Z 14003KT 26/11 A3009 RMK A01 T02550105  RH  039%=      5-min Rain = 0
KTA1 120200Z 14003KT 26/11 A3009 RMK A01 T02550105  RH  039%=      5-min Rain = 0
KTA1 120201Z 14003KT 26/11 A3009 RMK A01 T02550106  RH  039%=      5-min Rain = 0
KTA1 120202Z 14003KT 25/11 A3009 RMK A01 T02540106  RH  039%=      5-min Rain = 0
KTA1 120203Z 13003KT 25/11 A3009 RMK A01 T02540105  RH  039%=      5-min Rain = 0
KTA1 120204Z 13003KT 25/11 A301 RMK A01 T02540106  RH  039%=      5-min Rain = 0
KTA1 120205Z 13003KT 25/11 A301 RMK A01 T02540105  RH  039%=      5-min Rain = 0
KTA1 120206Z 13003KT 25/11 A301 RMK A01 T02530105  RH  039%=      5-min Rain = 0
KTA1 120207Z 13003KT 25/11 A301 RMK A01 T02530105  RH  039%=      5-min Rain = 0
KTA1 120208Z 13003KT 25/11 A301 RMK A01 T02530105  RH  039%=      5-min Rain = 0
KTA1 120209Z 13003KT 25/11 A301 RMK A01 T02520105  RH  040%=      5-min Rain = 0
KTA1 120210Z 13003KT 25/11 A301 RMK A01 T02520106  RH  040%=      5-min Rain = 0
KTA1 120211Z 13003KT 25/11 A301 RMK A01 T02520105  RH  040%=      5-min Rain = 0
KTA1 120212Z 13003KT 25/11 A301 RMK A01 T02510106  RH  040%=      5-min Rain = 0
KTA1 120213Z 13003KT 25/11 A301 RMK A01 T02510107  RH  040%=      5-min Rain = 0
KTA1 120214Z 13003KT 25/11 A301 RMK A01 T02510107  RH  040%=      5-min Rain = 0
KTA1 120215Z 13003KT 25/11 A301 RMK A01 T02510107  RH  040%=      5-min Rain = 0
KTA1 120216Z 13003KT 25/11 A301 RMK A01 T02510107  RH  040%=      5-min Rain = 0
KTA1 120217Z 13003KT 25/11 A301 RMK A01 T02510107  RH  040%=      5-min Rain = 0
KTA1 120218Z 13003KT 25/11 A301 RMK A01 T02520107  RH  040%=      5-min Rain = 0
KTA1 120219Z 13003KT 25/11 A301 RMK A01 T02520107  RH  040%=      5-min Rain = 0
KTA1 120220Z 13003KT 25/11 A301 RMK A01 T02520107  RH  040%=      5-min Rain = 0
KTA1 120221Z 13003KT 25/11 A301 RMK A01 T02520108  RH  040%=      5-min Rain = 0
KTA1 120222Z 13003KT 25/11 A301 RMK A01 T02510108  RH  040%=      5-min Rain = 0
KTA1 120223Z 13003KT 25/11 A301 RMK A01 T02510108  RH  041%=      5-min Rain = 0
KTA1 120224Z 13003KT 25/11 A301 RMK A01 T02500108  RH  041%=      5-min Rain = 0
KTA1 120225Z 13003KT 25/11 A301 RMK A01 T02500108  RH  041%=      5-min Rain = 0
KTA1 120226Z 13003KT 25/11 A301 RMK A01 T02490108  RH  041%=      5-min Rain = 0
KTA1 120227Z 13003KT 25/11 A301 RMK A01 T02490112  RH  042%=      5-min Rain = 0
KTA1 120228Z 13002KT 25/11 A301 RMK A01 T02480113  RH  043%=      5-min Rain = 0
KTA1 120229Z 13002KT 25/11 A301 RMK A01 T02480113  RH  043%=      5-min Rain = 0
KTA1 120230Z 13002KT 25/11 A301 RMK A01 T02470113  RH  043%=      5-min Rain = 0
KTA1 120231Z 13002KT 25/11 A301 RMK A01 T02470112  RH  043%=      5-min Rain = 0
KTA1 120232Z 13002KT 25/11 A301 RMK A01 T02470111  RH  042%=      5-min Rain = 0
KTA1 120233Z 13002KT 25/11 A301 RMK A01 T02470110  RH  042%=      5-min Rain = 0
KTA1 120234Z 13002KT 25/11 A301 RMK A01 T02470111  RH  042%=      5-min Rain = 0
KTA1 120235Z 13002KT 25/11 A301 RMK A01 T02470114  RH  043%=      5-min Rain = 0
KTA1 120236Z 13002KT 25/12 A301 RMK A01 T02470115  RH  044%=      5-min Rain = 0
KTA1 120237Z 13002KT 25/12 A301 RMK A01 T02460115  RH  044%=      5-min Rain = 0
KTA1 120238Z 13001KT 25/12 A301 RMK A01 T02460115  RH  044%=      5-min Rain = 0
KTA1 120239Z 13001KT 25/12 A301 RMK A01 T02450115  RH  044%=      5-min Rain = 0
KTA1 120240Z 13001KT 25/11 A301 RMK A01 T02450114  RH  044%=      5-min Rain = 0
KTA1 120241Z 13001KT 24/11 A301 RMK A01 T02440113  RH  044%=      5-min Rain = 0
KTA1 120242Z 13001KT 24/11 A301 RMK A01 T02430112  RH  044%=      5-min Rain = 0
KTA1 120243Z 13001KT 24/11 A301 RMK A01 T02420112  RH  044%=      5-min Rain = 0
KTA1 120244Z 13001KT 24/11 A301 RMK A01 T02410112  RH  044%=      5-min Rain = 0
KTA1 120245Z 13001KT 24/11 A301 RMK A01 T02410112  RH  044%=      5-min Rain = 0
KTA1 120246Z 13001KT 24/11 A301 RMK A01 T02410112  RH  044%=      5-min Rain = 0
KTA1 120247Z 13001KT 24/11 A301 RMK A01 T02400112  RH  044%=      5-min Rain = 0
KTA1 120248Z 13002KT 24/11 A301 RMK A01 T02400112  RH  045%=      5-min Rain = 0
KTA1 120249Z 13002KT 24/11 A301 RMK A01 T02400112  RH  044%=      5-min Rain = 0
KTA1 120250Z 13002KT 24/11 A301 RMK A01 T02400112  RH  045%=      5-min Rain = 0
KTA1 120251Z 13003KT 24/11 A301 RMK A01 T02400112  RH  045%=      5-min Rain = 0
KTA1 120252Z 13003KT 24/11 A301 RMK A01 T02410110  RH  044%=      5-min Rain = 0
KTA1 120253Z 13002KT 24/11 A301 RMK A01 T02410109  RH  043%=      5-min Rain = 0
KTA1 120254Z 13002KT 24/11 A301 RMK A01 T02410107  RH  043%=      5-min Rain = 0
KTA1 120255Z 13002KT 24/11 A301 RMK A01 T02420107  RH  043%=      5-min Rain = 0
KTA1 120256Z 13002KT 24/11 A301 RMK A01 T02410106  RH  043%=      5-min Rain = 0
KTA1 120257Z 13002KT 24/11 A301 RMK A01 T02410106  RH  043%=      5-min Rain = 0
KTA1 120258Z 13002KT 24/11 A301 RMK A01 T02410105  RH  042%=      5-min Rain = 0
KTA1 120259Z 13002KT 24/11 A301 RMK A01 T02400107  RH  043%=      5-min Rain = 0
KTA1 120300Z 13002KT 24/11 A301 RMK A01 T02390107  RH  043%=      5-min Rain = 0
KTA1 120301Z 13002KT 24/11 A301 RMK A01 T02380107  RH  043%=      5-min Rain = 0
KTA1 120302Z 13002KT 24/11 A301 RMK A01 T02370107  RH  044%=      5-min Rain = 0
KTA1 120303Z 13002KT 24/11 A301 RMK A01 T02370107  RH  044%=      5-min Rain = 0
KTA1 120304Z 13001KT 24/11 A301 RMK A01 T02360106  RH  044%=      5-min Rain = 0
KTA1 120305Z 13001KT 24/10 A301 RMK A01 T02350104  RH  043%=      5-min Rain = 0
KTA1 120306Z 13002KT 23/10 A301 RMK A01 T02320101  RH  043%=      5-min Rain = 0
KTA1 120307Z 12002KT 23/10 A301 RMK A01 T02300100  RH  044%=      5-min Rain = 0
KTA1 120308Z 09005KT 23/10 A3011 RMK A01 T02280102  RH  045%=      5-min Rain = 0
KTA1 120309Z 08005KT 23/10 A3011 RMK A01 T02270102  RH  045%=      5-min Rain = 0
KTA1 120310Z 08005KT 23/10 A3011 RMK A01 T02280104  RH  045%=      5-min Rain = 0
KTA1 120311Z 09004KT 23/11 A3011 RMK A01 T02290105  RH  045%=      5-min Rain = 0
KTA1 120312Z 09003KT 23/10 A3011 RMK A01 T02290104  RH  045%=      5-min Rain = 0
KTA1 120313Z 09004KT 23/10 A3011 RMK A01 T02290104  RH  045%=      5-min Rain = 0
KTA1 120314Z 09003KT 23/10 A3011 RMK A01 T02290104  RH  045%=      5-min Rain = 0
KTA1 120315Z 09003KT 23/10 A3011 RMK A01 T02280102  RH  045%=      5-min Rain = 0
KTA1 120316Z 08002KT 23/10 A3011 RMK A01 T02270102  RH  045%=      5-min Rain = 0
KTA1 120317Z 08002KT 23/10 A3011 RMK A01 T02260102  RH  045%=      5-min Rain = 0
KTA1 120318Z 08001KT 22/10 A3011 RMK A01 T02240101  RH  045%=      5-min Rain = 0
KTA1 120319Z 08001KT 22/10 A3011 RMK A01 T02230100  RH  046%=      5-min Rain = 0
KTA1 120320Z 09001KT 22/10 A3011 RMK A01 T02210099  RH  046%=      5-min Rain = 0
KTA1 120321Z 06001KT 22/10 A3011 RMK A01 T02200098  RH  046%=      5-min Rain = 0
KTA1 120322Z 05000KT 22/10 A3011 RMK A01 T02190099  RH  046%=      5-min Rain = 0
KTA1 120323Z 06000KT 22/10 A3011 RMK A01 T02180100  RH  047%=      5-min Rain = 0
KTA1 120324Z 07001KT 22/10 A3011 RMK A01 T02180101  RH  047%=      5-min Rain = 0
KTA1 120325Z 07000KT 22/10 A3011 RMK A01 T02170101  RH  047%=      5-min Rain = 0
KTA1 120326Z 07000KT 22/10 A3011 RMK A01 T02170100  RH  047%=      5-min Rain = 0
KTA1 120327Z 07000KT 22/10 A3011 RMK A01 T02170102  RH  048%=      5-min Rain = 0
KTA1 120328Z 07000KT 22/10 A3011 RMK A01 T02170103  RH  048%=      5-min Rain = 0
KTA1 120329Z 09001KT 22/10 A3011 RMK A01 T02170103  RH  048%=      5-min Rain = 0
KTA1 120330Z 09001KT 22/10 A3011 RMK A01 T02180103  RH  048%=      5-min Rain = 0
KTA1 120331Z 09001KT 22/10 A3011 RMK A01 T02190103  RH  048%=      5-min Rain = 0
KTA1 120332Z 10001KT 22/10 A3011 RMK A01 T02190103  RH  048%=      5-min Rain = 0
KTA1 120333Z 10001KT 22/10 A3011 RMK A01 T02190103  RH  048%=      5-min Rain = 0
KTA1 120334Z 11001KT 22/10 A3011 RMK A01 T02190104  RH  048%=      5-min Rain = 0
KTA1 120335Z 11001KT 22/10 A3011 RMK A01 T02190103  RH  048%=      5-min Rain = 0
KTA1 120336Z 11002KT 22/10 A3011 RMK A01 T02200104  RH  048%=      5-min Rain = 0
KTA1 120337Z 11002KT 22/10 A3011 RMK A01 T02210104  RH  047%=      5-min Rain = 0
KTA1 120338Z 10002KT 22/10 A3011 RMK A01 T02220103  RH  047%=      5-min Rain = 0
KTA1 120339Z 10002KT 22/10 A3011 RMK A01 T02220102  RH  047%=      5-min Rain = 0
KTA1 120340Z 09002KT 22/10 A3011 RMK A01 T02220103  RH  047%=      5-min Rain = 0
KTA1 120341Z 08003KT 22/10 A3011 RMK A01 T02220103  RH  047%=      5-min Rain = 0
KTA1 120342Z 08002KT 22/10 A3011 RMK A01 T02230103  RH  046%=      5-min Rain = 0
KTA1 120343Z 08002KT 22/10 A3011 RMK A01 T02240103  RH  046%=      5-min Rain = 0
KTA1 120344Z 09002KT 23/10 A3011 RMK A01 T02250102  RH  046%=      5-min Rain = 0
KTA1 120345Z 09002KT 23/10 A3011 RMK A01 T02250101  RH  045%=      5-min Rain = 0
KTA1 120346Z 09003KT 23/10 A3011 RMK A01 T02250101  RH  045%=      5-min Rain = 0
KTA1 120347Z 09003KT 22/10 A3011 RMK A01 T02240100  RH  045%=      5-min Rain = 0
KTA1 120348Z 08003KT 22/10 A3011 RMK A01 T02240100  RH  045%=      5-min Rain = 0
KTA1 120349Z 08003KT 22/10 A3011 RMK A01 T02230099  RH  045%=      5-min Rain = 0
KTA1 120350Z 09002KT 22/10 A3011 RMK A01 T02220099  RH  046%=      5-min Rain = 0
KTA1 120351Z 09002KT 22/10 A3011 RMK A01 T02220099  RH  046%=      5-min Rain = 0
KTA1 120352Z 09002KT 22/10 A3011 RMK A01 T02220099  RH  046%=      5-min Rain = 0
KTA1 120353Z 09002KT 22/10 A3011 RMK A01 T02220100  RH  046%=      5-min Rain = 0
KTA1 120354Z 10002KT 22/10 A3011 RMK A01 T02220100  RH  046%=      5-min Rain = 0
KTA1 120355Z 09002KT 22/10 A3011 RMK A01 T02210099  RH  046%=      5-min Rain = 0
KTA1 120356Z 07002KT 22/10 A3011 RMK A01 T02210099  RH  046%=      5-min Rain = 0
KTA1 120357Z 05002KT 22/10 A3011 RMK A01 T02200097  RH  045%=      5-min Rain = 0
KTA1 120358Z 05002KT 22/10 A3011 RMK A01 T02190096  RH  046%=      5-min Rain = 0
KTA1 120359Z 05002KT 22/10 A3012 RMK A01 T02170096  RH  046%=      5-min Rain = 0
KTA1 120400Z 06002KT 22/10 A3012 RMK A01 T02160097  RH  046%=      5-min Rain = 0
KTA1 120401Z 07002KT 22/10 A3012 RMK A01 T02160098  RH  047%=      5-min Rain = 0
KTA1 120402Z 07002KT 22/10 A3012 RMK A01 T02150097  RH  047%=      5-min Rain = 0
KTA1 120403Z 06002KT 22/10 A3012 RMK A01 T02150097  RH  047%=      5-min Rain = 0
KTA1 120404Z 06002KT 21/10 A3012 RMK A01 T02140096  RH  047%=      5-min Rain = 0
KTA1 120405Z 05002KT 21/10 A3012 RMK A01 T02130096  RH  047%=      5-min Rain = 0
KTA1 120406Z 05002KT 21/10 A3012 RMK A01 T02110096  RH  047%=      5-min Rain = 0
KTA1 120407Z 05002KT 21/10 A3012 RMK A01 T02110096  RH  048%=      5-min Rain = 0
KTA1 120408Z 07002KT 21/10 A3012 RMK A01 T02100097  RH  048%=      5-min Rain = 0
KTA1 120409Z 07002KT 21/10 A3012 RMK A01 T02100097  RH  048%=      5-min Rain = 0
KTA1 120410Z 08002KT 21/10 A3012 RMK A01 T02110098  RH  048%=      5-min Rain = 0
KTA1 120411Z 10002KT 21/10 A3012 RMK A01 T02120098  RH  048%=      5-min Rain = 0
KTA1 120412Z 10002KT 21/10 A3012 RMK A01 T02140099  RH  048%=      5-min Rain = 0
KTA1 120413Z 10002KT 22/10 A3012 RMK A01 T02150099  RH  047%=      5-min Rain = 0
KTA1 120414Z 10002KT 22/10 A3012 RMK A01 T02160099  RH  047%=      5-min Rain = 0
KTA1 120415Z 11002KT 22/10 A3012 RMK A01 T02170100  RH  047%=      5-min Rain = 0
KTA1 120416Z 11002KT 22/10 A3012 RMK A01 T02190100  RH  047%=      5-min Rain = 0
KTA1 120417Z 11002KT 22/10 A3012 RMK A01 T02190099  RH  046%=      5-min Rain = 0
KTA1 120418Z 11002KT 22/10 A3012 RMK A01 T02190099  RH  046%=      5-min Rain = 0
KTA1 120419Z 11003KT 22/10 A3012 RMK A01 T02190099  RH  046%=      5-min Rain = 0
KTA1 120420Z 11003KT 22/10 A3012 RMK A01 T02200099  RH  046%=      5-min Rain = 0
KTA1 120421Z 11003KT 22/10 A3012 RMK A01 T02200099  RH  046%=      5-min Rain = 0
KTA1 120422Z 10003KT 22/10 A3012 RMK A01 T02210099  RH  046%=      5-min Rain = 0
KTA1 120423Z 10003KT 22/10 A3012 RMK A01 T02210098  RH  046%=      5-min Rain = 0
KTA1 120424Z 10003KT 22/10 A3012 RMK A01 T02210098  RH  046%=      5-min Rain = 0
KTA1 120425Z 10004KT 22/10 A3012 RMK A01 T02210098  RH  046%=      5-min Rain = 0
KTA1 120426Z 09004KT 22/10 A3012 RMK A01 T02200098  RH  046%=      5-min Rain = 0
KTA1 120427Z 10003KT 22/10 A3012 RMK A01 T02200098  RH  046%=      5-min Rain = 0
KTA1 120428Z 11004KT 22/10 A3012 RMK A01 T02190097  RH  046%=      5-min Rain = 0
KTA1 120429Z 11004KT 22/10 A3012 RMK A01 T02190098  RH  046%=      5-min Rain = 0
KTA1 120430Z 11004KT 22/10 A3012 RMK A01 T02180097  RH  046%=      5-min Rain = 0
KTA1 120431Z 11003KT 22/10 A3012 RMK A01 T02180097  RH  046%=      5-min Rain = 0
KTA1 120432Z 11003KT 22/10 A3012 RMK A01 T02180097  RH  046%=      5-min Rain = 0
KTA1 120433Z 11003KT 22/10 A3012 RMK A01 T02180097  RH  046%=      5-min Rain = 0
KTA1 120434Z 11003KT 22/10 A3012 RMK A01 T02190098  RH  046%=      5-min Rain = 0
KTA1 120435Z 11004KT 22/10 A3012 RMK A01 T02200097  RH  046%=      5-min Rain = 0
KTA1 120436Z 11004KT 22/10 A3012 RMK A01 T02200097  RH  046%=      5-min Rain = 0
KTA1 120437Z 11004KT 22/10 A3012 RMK A01 T02200097  RH  046%=      5-min Rain = 0
KTA1 120438Z 11004KT 22/10 A3012 RMK A01 T02190097  RH  046%=      5-min Rain = 0
KTA1 120439Z 11004KT 22/10 A3012 RMK A01 T02190097  RH  046%=      5-min Rain = 0
KTA1 120440Z 12004KT 22/10 A3012 RMK A01 T02180097  RH  046%=      5-min Rain = 0
KTA1 120441Z 12004KT 22/10 A3012 RMK A01 T02180097  RH  046%=      5-min Rain = 0
KTA1 120442Z 13003KT 22/10 A3012 RMK A01 T02170097  RH  046%=      5-min Rain = 0
KTA1 120443Z 13003KT 22/10 A3012 RMK A01 T02170097  RH  046%=      5-min Rain = 0
KTA1 120444Z 13003KT 22/10 A3012 RMK A01 T02170097  RH  046%=      5-min Rain = 0
KTA1 120445Z 13003KT 22/10 A3012 RMK A01 T02160096  RH  046%=      5-min Rain = 0
KTA1 120446Z 13003KT 22/10 A3012 RMK A01 T02150096  RH  047%=      5-min Rain = 0
KTA1 120447Z 13003KT 21/10 A3012 RMK A01 T02140096  RH  047%=      5-min Rain = 0
KTA1 120448Z 13003KT 21/10 A3012 RMK A01 T02140097  RH  047%=      5-min Rain = 0
KTA1 120449Z 13003KT 21/10 A3012 RMK A01 T02140097  RH  047%=      5-min Rain = 0
KTA1 120450Z 13003KT 21/10 A3012 RMK A01 T02130097  RH  047%=      5-min Rain = 0
KTA1 120451Z 13003KT 21/10 A3012 RMK A01 T02130097  RH  048%=      5-min Rain = 0
KTA1 120452Z 13003KT 21/10 A3012 RMK A01 T02130097  RH  048%=      5-min Rain = 0
KTA1 120453Z 13003KT 21/10 A3012 RMK A01 T02120098  RH  048%=      5-min Rain = 0
KTA1 120454Z 13003KT 21/10 A3012 RMK A01 T02120099  RH  048%=      5-min Rain = 0
KTA1 120455Z 13003KT 21/10 A3012 RMK A01 T02120099  RH  048%=      5-min Rain = 0
KTA1 120456Z 13003KT 21/10 A3012 RMK A01 T02110099  RH  048%=      5-min Rain = 0
KTA1 120457Z 13003KT 21/10 A3012 RMK A01 T02110099  RH  049%=      5-min Rain = 0
KTA1 120458Z 13003KT 21/10 A3012 RMK A01 T02110099  RH  049%=      5-min Rain = 0
KTA1 120459Z 13003KT 21/10 A3012 RMK A01 T02110098  RH  048%=      5-min Rain = 0

Page generated in 0.1288 seconds.